Wetterdaten: Sonntag, 08.01.2023
Datum Zeit Temp. Aussen Temp. o. S. Temp +5cm Feuchte Auss Luftdruck Regen Sonnenschein Regendauer Solar Windben Empfang
08.01.2023 00:00 10,3 C 9,4 C 5,6 C 87 % 1006,0 hPa 0,0 l/m 0 min 0 min 0 W/m 22,5 km/h (4 Bft) 100,00 %
08.01.2023 00:02 10,3 C 9,4 C 5,6 C 88 % 1006,1 hPa 0,0 l/m 0 min 2 min 0 W/m 22,5 km/h (4 Bft) 43,24 %
08.01.2023 00:04 10,3 C 9,4 C 6,1 C 88 % 1006,0 hPa 0,0 l/m 0 min 0 min 0 W/m 19,3 km/h (3 Bft) 100,00 %
08.01.2023 00:07 10,3 C 9,4 C 6,1 C 88 % 1005,9 hPa 0,0 l/m 0 min 0 min 0 W/m 19,3 km/h (3 Bft) 100,00 %
08.01.2023 00:08 10,3 C 9,4 C 6,1 C 88 % 1005,9 hPa 0,0 l/m 0 min 0 min 0 W/m 19,3 km/h (3 Bft) 100,00 %
08.01.2023 00:12 10,3 C 9,4 C 6,1 C 88 % 1005,8 hPa 0,0 l/m 0 min 0 min 0 W/m 12,9 km/h (3 Bft) 95,65 %
08.01.2023 00:14 10,3 C 9,4 C 6,1 C 88 % 1005,8 hPa 0,0 l/m 0 min 0 min 0 W/m 12,9 km/h (3 Bft) 100,00 %
08.01.2023 00:16 10,3 C 9,4 C 6,1 C 88 % 1005,7 hPa 0,0 l/m 0 min 0 min 0 W/m 19,3 km/h (3 Bft) 100,00 %
08.01.2023 00:18 10,2 C 9,4 C 6,1 C 88 % 1005,7 hPa 0,0 l/m 0 min 0 min 0 W/m 12,9 km/h (3 Bft) 100,00 %
08.01.2023 00:20 10,2 C 9,4 C 6,1 C 88 % 1005,7 hPa 0,0 l/m 0 min 0 min 0 W/m 12,9 km/h (3 Bft) 100,00 %
08.01.2023 00:22 10,2 C 9,4 C 6,1 C 88 % 1005,7 hPa 0,0 l/m 0 min 0 min 0 W/m 19,3 km/h (3 Bft) 100,00 %
08.01.2023 00:24 10,2 C 9,4 C 6,1 C 88 % 1005,7 hPa 0,0 l/m 0 min 0 min 0 W/m 9,7 km/h (2 Bft) 97,87 %
08.01.2023 00:26 10,2 C 9,4 C 6,1 C 88 % 1005,6 hPa 0,0 l/m 0 min 0 min 0 W/m 12,9 km/h (3 Bft) 100,00 %
08.01.2023 00:28 10,2 C 9,4 C 6,1 C 89 % 1005,6 hPa 0,0 l/m 0 min 0 min 0 W/m 16,1 km/h (3 Bft) 100,00 %
08.01.2023 00:30 10,2 C 9,4 C 6,1 C 89 % 1005,6 hPa 0,0 l/m 0 min 0 min 0 W/m 16,1 km/h (3 Bft) 100,00 %
08.01.2023 00:32 10,2 C 9,4 C 6,1 C 89 % 1005,7 hPa 0,0 l/m 0 min 0 min 0 W/m 16,1 km/h (3 Bft) 100,00 %
08.01.2023 00:34 10,2 C 9,4 C 6,1 C 89 % 1005,7 hPa 0,0 l/m 0 min 0 min 0 W/m 16,1 km/h (3 Bft) 100,00 %
08.01.2023 00:36 10,2 C 9,4 C 6,1 C 89 % 1005,7 hPa 0,0 l/m 0 min 0 min 0 W/m 22,5 km/h (4 Bft) 100,00 %
08.01.2023 00:38 10,2 C 9,4 C 6,1 C 89 % 1005,7 hPa 0,0 l/m 0 min 0 min 0 W/m 25,7 km/h (4 Bft) 100,00 %
08.01.2023 00:40 10,2 C 9,4 C 6,1 C 89 % 1005,7 hPa 0,0 l/m 0 min 0 min 0 W/m 25,7 km/h (4 Bft) 100,00 %
08.01.2023 00:42 10,3 C 9,4 C 6,1 C 88 % 1005,7 hPa 0,0 l/m 0 min 0 min 0 W/m 22,5 km/h (4 Bft) 100,00 %
08.01.2023 00:44 10,3 C 9,4 C 6,1 C 88 % 1005,6 hPa 0,0 l/m 0 min 0 min 0 W/m 19,3 km/h (3 Bft) 100,00 %
08.01.2023 00:46 10,3 C 9,4 C 6,1 C 88 % 1005,5 hPa 0,0 l/m 0 min 0 min 0 W/m 12,9 km/h (3 Bft) 100,00 %
08.01.2023 00:48 10,3 C 9,4 C 6,1 C 88 % 1005,5 hPa 0,0 l/m 0 min 0 min 0 W/m 16,1 km/h (3 Bft) 100,00 %
08.01.2023 00:50 10,3 C 9,4 C 6,1 C 88 % 1005,5 hPa 0,0 l/m 0 min 0 min 0 W/m 19,3 km/h (3 Bft) 100,00 %
08.01.2023 00:52 10,3 C 9,4 C 6,1 C 88 % 1005,4 hPa 0,0 l/m 0 min 0 min 0 W/m 22,5 km/h (4 Bft) 100,00 %
08.01.2023 00:54 10,3 C 9,4 C 6,1 C 88 % 1005,5 hPa 0,0 l/m 0 min 0 min 0 W/m 19,3 km/h (3 Bft) 97,87 %
08.01.2023 00:56 10,3 C 9,4 C 6,1 C 88 % 1005,5 hPa 0,0 l/m 0 min 0 min 0 W/m 16,1 km/h (3 Bft) 100,00 %
08.01.2023 00:58 10,3 C 9,4 C 6,1 C 88 % 1005,5 hPa 0,0 l/m 0 min 0 min 0 W/m 22,5 km/h (4 Bft) 100,00 %
08.01.2023 01:00 10,3 C 9,4 C 6,1 C 88 % 1005,5 hPa 0,0 l/m 0 min 0 min 0 W/m 25,7 km/h (4 Bft) 93,62 %
08.01.2023 01:02 10,3 C 9,4 C 6,1 C 88 % 1005,4 hPa 0,0 l/m 0 min 0 min 0 W/m 19,3 km/h (3 Bft) 100,00 %
08.01.2023 01:04 10,3 C 9,4 C 6,1 C 88 % 1005,3 hPa 0,0 l/m 0 min 0 min 0 W/m 19,3 km/h (3 Bft) 100,00 %
08.01.2023 01:06 10,3 C 9,4 C 6,1 C 88 % 1005,4 hPa 0,0 l/m 0 min 0 min 0 W/m 12,9 km/h (3 Bft) 100,00 %
08.01.2023 01:08 10,3 C 9,4 C 6,1 C 88 % 1005,3 hPa 0,0 l/m 0 min 0 min 0 W/m 12,9 km/h (3 Bft) 100,00 %
08.01.2023 01:10 10,3 C 9,4 C 6,1 C 88 % 1005,4 hPa 0,0 l/m 0 min 0 min 0 W/m 12,9 km/h (3 Bft) 100,00 %
08.01.2023 01:12 10,2 C 9,4 C 6,1 C 88 % 1005,4 hPa 0,0 l/m 0 min 0 min 0 W/m 12,9 km/h (3 Bft) 100,00 %
08.01.2023 01:14 10,2 C 9,4 C 6,1 C 88 % 1005,4 hPa 0,0 l/m 0 min 0 min 0 W/m 12,9 km/h (3 Bft) 100,00 %
08.01.2023 01:16 10,2 C 9,4 C 6,1 C 88 % 1005,5 hPa 0,0 l/m 0 min 0 min 0 W/m 9,7 km/h (2 Bft) 97,87 %
08.01.2023 01:18 10,2 C 9,4 C 5,6 C 88 % 1005,4 hPa 0,0 l/m 0 min 0 min 0 W/m 12,9 km/h (3 Bft) 95,65 %
08.01.2023 01:20 10,2 C 9,4 C 6,1 C 88 % 1005,4 hPa 0,0 l/m 0 min 0 min 0 W/m 12,9 km/h (3 Bft) 95,74 %
08.01.2023 01:22 10,2 C 9,4 C 6,1 C 88 % 1005,4 hPa 0,0 l/m 0 min 0 min 0 W/m 6,4 km/h (2 Bft) 95,74 %
08.01.2023 01:24 10,2 C 9,4 C 6,1 C 88 % 1005,4 hPa 0,0 l/m 0 min 0 min 0 W/m 12,9 km/h (3 Bft) 95,74 %
08.01.2023 01:26 10,2 C 9,4 C 6,1 C 88 % 1005,4 hPa 0,0 l/m 0 min 0 min 0 W/m 9,7 km/h (2 Bft) 97,87 %
08.01.2023 01:28 10,2 C 9,4 C 6,1 C 88 % 1005,5 hPa 0,0 l/m 0 min 0 min 0 W/m 9,7 km/h (2 Bft) 97,87 %
08.01.2023 01:30 10,2 C 9,4 C 6,1 C 88 % 1005,5 hPa 0,0 l/m 0 min 0 min 0 W/m 6,4 km/h (2 Bft) 97,83 %
08.01.2023 01:32 10,2 C 9,4 C 6,1 C 88 % 1005,5 hPa 0,0 l/m 0 min 0 min 0 W/m 12,9 km/h (3 Bft) 97,87 %
08.01.2023 01:34 10,2 C 9,4 C 6,1 C 88 % 1005,5 hPa 0,0 l/m 0 min 0 min 0 W/m 12,9 km/h (3 Bft) 95,74 %
08.01.2023 01:36 10,2 C 9,4 C 6,1 C 88 % 1005,5 hPa 0,0 l/m 0 min 0 min 0 W/m 12,9 km/h (3 Bft) 95,74 %
08.01.2023 01:38 10,2 C 9,4 C 6,1 C 88 % 1005,5 hPa 0,0 l/m 0 min 0 min 0 W/m 12,9 km/h (3 Bft) 95,74 %
08.01.2023 01:40 10,2 C 9,4 C 6,1 C 88 % 1005,5 hPa 0,0 l/m 0 min 0 min 0 W/m 12,9 km/h (3 Bft) 93,62 %
08.01.2023 01:42 10,1 C 9,4 C 6,1 C 88 % 1005,5 hPa 0,0 l/m 0 min 0 min 0 W/m 12,9 km/h (3 Bft) 95,74 %
08.01.2023 01:44 10,1 C 9,4 C 6,1 C 88 % 1005,4 hPa 0,0 l/m 0 min 0 min 0 W/m 6,4 km/h (2 Bft) 95,65 %
08.01.2023 01:46 10,1 C 9,4 C 6,1 C 88 % 1005,2 hPa 0,0 l/m 0 min 0 min 0 W/m 9,7 km/h (2 Bft) 95,74 %
08.01.2023 01:48 10,1 C 9,4 C 6,1 C 88 % 1005,2 hPa 0,0 l/m 0 min 0 min 0 W/m 6,4 km/h (2 Bft) 97,87 %
08.01.2023 01:50 10,1 C 9,4 C 6,1 C 88 % 1005,2 hPa 0,0 l/m 0 min 0 min 0 W/m 12,9 km/h (3 Bft) 97,87 %
08.01.2023 01:52 10,1 C 9,4 C 6,1 C 88 % 1005,2 hPa 0,0 l/m 0 min 0 min 0 W/m 12,9 km/h (3 Bft) 95,74 %
08.01.2023 01:54 10,1 C 9,4 C 5,6 C 88 % 1005,2 hPa 0,0 l/m 0 min 0 min 0 W/m 3,2 km/h (1 Bft) 95,74 %
08.01.2023 01:56 10,1 C 9,4 C 6,1 C 88 % 1005,2 hPa 0,0 l/m 0 min 0 min 0 W/m 9,7 km/h (2 Bft) 97,87 %
08.01.2023 01:58 10,1 C 9,4 C 5,6 C 88 % 1005,1 hPa 0,0 l/m 0 min 0 min 0 W/m 6,4 km/h (2 Bft) 97,87 %
08.01.2023 02:00 10,1 C 9,4 C 5,6 C 88 % 1005,1 hPa 0,0 l/m 0 min 0 min 0 W/m 6,4 km/h (2 Bft) 95,65 %
08.01.2023 02:02 10,1 C 9,4 C 5,6 C 88 % 1005,2 hPa 0,0 l/m 0 min 0 min 0 W/m 12,9 km/h (3 Bft) 95,74 %
08.01.2023 02:04 10,1 C 9,4 C 5,6 C 88 % 1005,1 hPa 0,0 l/m 0 min 0 min 0 W/m 9,7 km/h (2 Bft) 95,74 %
08.01.2023 02:06 10,1 C 9,4 C 5,6 C 88 % 1005,1 hPa 0,0 l/m 0 min 0 min 0 W/m 6,4 km/h (2 Bft) 95,74 %
08.01.2023 02:08 10,1 C 9,4 C 5,6 C 88 % 1005,1 hPa 0,0 l/m 0 min 0 min 0 W/m 12,9 km/h (3 Bft) 95,74 %
08.01.2023 02:10 10,1 C 9,4 C 5,6 C 88 % 1005,2 hPa 0,0 l/m 0 min 0 min 0 W/m 12,9 km/h (3 Bft) 95,74 %
08.01.2023 02:12 10,1 C 9,4 C 6,1 C 88 % 1005,1 hPa 0,0 l/m 0 min 0 min 0 W/m 12,9 km/h (3 Bft) 95,74 %
08.01.2023 02:14 10,1 C 9,4 C 5,6 C 88 % 1005,0 hPa 0,0 l/m 0 min 0 min 0 W/m 6,4 km/h (2 Bft) 95,92 %
08.01.2023 02:16 10,1 C 9,4 C 6,1 C 88 % 1005,0 hPa 0,0 l/m 0 min 0 min 0 W/m 9,7 km/h (2 Bft) 89,36 %
08.01.2023 02:18 10,1 C 9,4 C 6,1 C 88 % 1005,0 hPa 0,0 l/m 0 min 0 min 0 W/m 12,9 km/h (3 Bft) 97,87 %
08.01.2023 02:20 10,1 C 9,4 C 6,1 C 88 % 1005,0 hPa 0,0 l/m 0 min 0 min 0 W/m 12,9 km/h (3 Bft) 97,96 %
08.01.2023 02:22 10,1 C 9,4 C 6,1 C 88 % 1005,0 hPa 0,0 l/m 0 min 0 min 0 W/m 12,9 km/h (3 Bft) 94,29 %
08.01.2023 02:24 10,1 C 9,4 C 6,1 C 89 % 1005,1 hPa 0,0 l/m 0 min 0 min 0 W/m 6,4 km/h (2 Bft) 97,87 %
08.01.2023 02:26 10,1 C 9,4 C 6,1 C 89 % 1005,1 hPa 0,0 l/m 0 min 0 min 0 W/m 12,9 km/h (3 Bft) 97,87 %
08.01.2023 02:28 10,1 C 9,4 C 6,1 C 89 % 1005,1 hPa 0,0 l/m 0 min 0 min 0 W/m 12,9 km/h (3 Bft) 98,11 %
08.01.2023 02:30 10,1 C 9,4 C 6,1 C 89 % 1005,1 hPa 0,0 l/m 0 min 0 min 0 W/m 9,7 km/h (2 Bft) 98,00 %
08.01.2023 02:32 10,1 C 9,4 C 6,1 C 89 % 1005,1 hPa 0,0 l/m 0 min 0 min 0 W/m 6,4 km/h (2 Bft) 95,92 %
08.01.2023 02:34 10,1 C 9,4 C 6,1 C 89 % 1005,0 hPa 0,0 l/m 0 min 0 min 0 W/m 6,4 km/h (2 Bft) 95,74 %
08.01.2023 02:36 10,1 C 9,4 C 6,1 C 89 % 1005,1 hPa 0,0 l/m 0 min 0 min 0 W/m 9,7 km/h (2 Bft) 97,87 %
08.01.2023 02:38 10,1 C 9,4 C 6,1 C 89 % 1005,1 hPa 0,0 l/m 0 min 0 min 0 W/m 9,7 km/h (2 Bft) 95,65 %
08.01.2023 02:40 10,1 C 9,4 C 6,1 C 89 % 1005,0 hPa 0,0 l/m 0 min 0 min 0 W/m 9,7 km/h (2 Bft) 97,87 %
08.01.2023 02:42 10,1 C 9,4 C 6,1 C 89 % 1005,0 hPa 0,0 l/m 0 min 0 min 0 W/m 6,4 km/h (2 Bft) 97,87 %
08.01.2023 02:44 10,1 C 9,4 C 6,1 C 89 % 1005,0 hPa 0,0 l/m 0 min 0 min 0 W/m 12,9 km/h (3 Bft) 97,87 %
08.01.2023 02:46 10,1 C 9,4 C 6,1 C 89 % 1004,9 hPa 0,0 l/m 0 min 0 min 0 W/m 12,9 km/h (3 Bft) 95,74 %
08.01.2023 02:48 10,1 C 9,4 C 6,1 C 89 % 1004,9 hPa 0,0 l/m 0 min 0 min 0 W/m 19,3 km/h (3 Bft) 97,87 %
08.01.2023 02:50 10,1 C 9,4 C 6,1 C 89 % 1004,9 hPa 0,0 l/m 0 min 0 min 0 W/m 16,1 km/h (3 Bft) 100,00 %
08.01.2023 02:52 10,1 C 9,4 C 6,1 C 89 % 1004,9 hPa 0,0 l/m 0 min 0 min 0 W/m 19,3 km/h (3 Bft) 97,83 %
08.01.2023 02:54 10,1 C 9,4 C 6,1 C 89 % 1004,9 hPa 0,0 l/m 0 min 0 min 0 W/m 12,9 km/h (3 Bft) 100,00 %
08.01.2023 02:56 10,1 C 9,4 C 6,1 C 88 % 1004,9 hPa 0,0 l/m 0 min 0 min 0 W/m 12,9 km/h (3 Bft) 100,00 %
08.01.2023 02:58 10,1 C 9,4 C 6,1 C 88 % 1004,9 hPa 0,0 l/m 0 min 0 min 0 W/m 12,9 km/h (3 Bft) 100,00 %
08.01.2023 03:00 10,1 C 9,4 C 6,1 C 88 % 1004,8 hPa 0,0 l/m 0 min 0 min 0 W/m 6,4 km/h (2 Bft) 95,74 %
08.01.2023 03:02 10,1 C 9,4 C 6,1 C 88 % 1004,7 hPa 0,0 l/m 0 min 0 min 0 W/m 12,9 km/h (3 Bft) 93,62 %
08.01.2023 03:04 10,1 C 9,4 C 6,1 C 88 % 1004,7 hPa 0,0 l/m 0 min 0 min 0 W/m 16,1 km/h (3 Bft) 100,00 %
08.01.2023 03:06 10,1 C 9,4 C 6,1 C 88 % 1004,7 hPa 0,0 l/m 0 min 0 min 0 W/m 12,9 km/h (3 Bft) 100,00 %
08.01.2023 03:08 10,2 C 9,4 C 6,1 C 88 % 1004,7 hPa 0,0 l/m 0 min 0 min 0 W/m 16,1 km/h (3 Bft) 100,00 %
08.01.2023 03:10 10,2 C 9,4 C 6,1 C 88 % 1004,7 hPa 0,0 l/m 0 min 0 min 0 W/m 16,1 km/h (3 Bft) 100,00 %
08.01.2023 03:12 10,2 C 9,4 C 6,1 C 88 % 1004,6 hPa 0,0 l/m 0 min 0 min 0 W/m 16,1 km/h (3 Bft) 97,87 %
08.01.2023 03:14 10,2 C 9,4 C 6,1 C 88 % 1004,6 hPa 0,0 l/m 0 min 0 min 0 W/m 16,1 km/h (3 Bft) 97,87 %
08.01.2023 03:16 10,2 C 9,4 C 6,1 C 88 % 1004,6 hPa 0,0 l/m 0 min 2 min 0 W/m 19,3 km/h (3 Bft) 97,87 %
08.01.2023 03:18 10,2 C 9,4 C 6,1 C 88 % 1004,6 hPa 0,0 l/m 0 min 2 min 0 W/m 12,9 km/h (3 Bft) 97,87 %
08.01.2023 03:20 10,2 C 9,4 C 6,1 C 88 % 1004,6 hPa 0,0 l/m 0 min 0 min 0 W/m 16,1 km/h (3 Bft) 97,83 %
08.01.2023 03:22 10,2 C 9,4 C 6,1 C 88 % 1004,6 hPa 0,0 l/m 0 min 0 min 0 W/m 12,9 km/h (3 Bft) 97,87 %
08.01.2023 03:24 10,2 C 9,4 C 6,1 C 88 % 1004,6 hPa 0,0 l/m 0 min 0 min 0 W/m 12,9 km/h (3 Bft) 97,87 %
08.01.2023 03:26 10,2 C 9,4 C 6,1 C 88 % 1004,5 hPa 0,0 l/m 0 min 0 min 0 W/m 9,7 km/h (2 Bft) 97,87 %
08.01.2023 03:28 10,2 C 9,4 C 6,1 C 88 % 1004,5 hPa 0,0 l/m 0 min 0 min 0 W/m 12,9 km/h (3 Bft) 97,14 %
08.01.2023 03:30 10,3 C 9,4 C 6,1 C 88 % 1004,4 hPa 0,0 l/m 0 min 0 min 0 W/m 16,1 km/h (3 Bft) 97,87 %
08.01.2023 03:32 10,3 C 9,4 C 6,1 C 88 % 1004,4 hPa 0,0 l/m 0 min 0 min 0 W/m 12,9 km/h (3 Bft) 96,43 %
08.01.2023 03:34 10,3 C 9,4 C 6,1 C 88 % 1004,4 hPa 0,0 l/m 0 min 0 min 0 W/m 12,9 km/h (3 Bft) 97,87 %
08.01.2023 03:36 10,3 C 9,4 C 6,1 C 88 % 1004,4 hPa 0,0 l/m 0 min 0 min 0 W/m 16,1 km/h (3 Bft) 97,83 %
08.01.2023 03:38 10,3 C 9,4 C 6,1 C 88 % 1004,3 hPa 0,0 l/m 0 min 0 min 0 W/m 16,1 km/h (3 Bft) 97,87 %
08.01.2023 03:40 10,3 C 9,4 C 6,1 C 88 % 1004,3 hPa 0,0 l/m 0 min 0 min 0 W/m 12,9 km/h (3 Bft) 97,87 %
08.01.2023 03:42 10,3 C 9,4 C 6,1 C 88 % 1004,3 hPa 0,0 l/m 0 min 0 min 0 W/m 12,9 km/h (3 Bft) 97,87 %
08.01.2023 03:44 10,3 C 9,4 C 6,1 C 87 % 1004,3 hPa 0,0 l/m 0 min 0 min 0 W/m 12,9 km/h (3 Bft) 97,87 %
08.01.2023 03:46 10,3 C 9,4 C 6,1 C 87 % 1004,3 hPa 0,0 l/m 0 min 0 min 0 W/m 22,5 km/h (4 Bft) 97,87 %
08.01.2023 03:48 10,3 C 9,4 C 6,1 C 87 % 1004,2 hPa 0,0 l/m 0 min 0 min 0 W/m 16,1 km/h (3 Bft) 100,00 %
08.01.2023 03:50 10,3 C 9,4 C 6,1 C 87 % 1004,2 hPa 0,0 l/m 0 min 0 min 0 W/m 9,7 km/h (2 Bft) 97,83 %
08.01.2023 03:52 10,3 C 9,4 C 6,1 C 87 % 1004,2 hPa 0,0 l/m 0 min 0 min 0 W/m 19,3 km/h (3 Bft) 100,00 %
08.01.2023 03:54 10,3 C 9,4 C 6,1 C 87 % 1004,1 hPa 0,0 l/m 0 min 0 min 0 W/m 16,1 km/h (3 Bft) 100,00 %
08.01.2023 03:56 10,3 C 9,4 C 6,1 C 87 % 1004,1 hPa 0,0 l/m 0 min 0 min 0 W/m 19,3 km/h (3 Bft) 100,00 %
08.01.2023 03:58 10,3 C 9,4 C 6,1 C 87 % 1004,1 hPa 0,0 l/m 0 min 0 min 0 W/m 12,9 km/h (3 Bft) 95,74 %
08.01.2023 04:00 10,3 C 9,4 C 6,1 C 87 % 1004,0 hPa 0,0 l/m 0 min 0 min 0 W/m 16,1 km/h (3 Bft) 97,87 %
08.01.2023 04:02 10,3 C 9,4 C 6,1 C 87 % 1004,0 hPa 0,0 l/m 0 min 0 min 0 W/m 16,1 km/h (3 Bft) 100,00 %
08.01.2023 04:04 10,3 C 9,4 C 6,1 C 87 % 1004,0 hPa 0,0 l/m 0 min 0 min 0 W/m 12,9 km/h (3 Bft) 100,00 %
08.01.2023 04:06 10,3 C 9,4 C 6,1 C 87 % 1004,0 hPa 0,0 l/m 0 min 0 min 0 W/m 12,9 km/h (3 Bft) 100,00 %
08.01.2023 04:08 10,3 C 9,4 C 6,1 C 87 % 1004,0 hPa 0,0 l/m 0 min 0 min 0 W/m 12,9 km/h (3 Bft) 97,87 %
08.01.2023 04:10 10,3 C 9,4 C 6,1 C 87 % 1004,0 hPa 0,0 l/m 0 min 0 min 0 W/m 12,9 km/h (3 Bft) 95,74 %
08.01.2023 04:12 10,3 C 9,4 C 6,1 C 87 % 1003,9 hPa 0,0 l/m 0 min 0 min 0 W/m 16,1 km/h (3 Bft) 97,87 %
08.01.2023 04:14 10,3 C 9,4 C 6,1 C 87 % 1003,9 hPa 0,0 l/m 0 min 0 min 0 W/m 6,4 km/h (2 Bft) 97,87 %
08.01.2023 04:16 10,3 C 9,4 C 6,1 C 87 % 1003,8 hPa 0,0 l/m 0 min 0 min 0 W/m 16,1 km/h (3 Bft) 97,87 %
08.01.2023 04:18 10,3 C 9,4 C 6,1 C 87 % 1003,9 hPa 0,0 l/m 0 min 0 min 0 W/m 12,9 km/h (3 Bft) 97,83 %
08.01.2023 04:20 10,3 C 9,4 C 6,1 C 87 % 1003,9 hPa 0,0 l/m 0 min 0 min 0 W/m 16,1 km/h (3 Bft) 95,74 %
08.01.2023 04:22 10,2 C 9,4 C 6,1 C 87 % 1003,9 hPa 0,0 l/m 0 min 0 min 0 W/m 9,7 km/h (2 Bft) 97,87 %
08.01.2023 04:24 10,2 C 9,4 C 6,1 C 87 % 1004,0 hPa 0,0 l/m 0 min 0 min 0 W/m 9,7 km/h (2 Bft) 97,87 %
08.01.2023 04:26 10,2 C 9,4 C 6,1 C 87 % 1004,0 hPa 0,0 l/m 0 min 0 min 0 W/m 16,1 km/h (3 Bft) 93,62 %
08.01.2023 04:28 10,2 C 9,4 C 6,1 C 87 % 1004,0 hPa 0,0 l/m 0 min 0 min 0 W/m 3,2 km/h (1 Bft) 97,87 %
08.01.2023 04:30 10,2 C 9,4 C 6,1 C 87 % 1004,0 hPa 0,0 l/m 0 min 0 min 0 W/m 16,1 km/h (3 Bft) 97,83 %
08.01.2023 04:32 10,2 C 9,4 C 6,1 C 87 % 1004,0 hPa 0,0 l/m 0 min 0 min 0 W/m 6,4 km/h (2 Bft) 97,87 %
08.01.2023 04:34 10,2 C 9,4 C 6,1 C 87 % 1003,9 hPa 0,0 l/m 0 min 0 min 0 W/m 6,4 km/h (2 Bft) 97,87 %
08.01.2023 04:36 10,2 C 9,4 C 6,1 C 87 % 1003,9 hPa 0,0 l/m 0 min 0 min 0 W/m 6,4 km/h (2 Bft) 97,87 %
08.01.2023 04:38 10,2 C 9,4 C 6,1 C 87 % 1003,9 hPa 0,0 l/m 0 min 0 min 0 W/m 6,4 km/h (2 Bft) 95,74 %
08.01.2023 04:40 10,2 C 9,4 C 5,6 C 87 % 1003,9 hPa 0,0 l/m 0 min 0 min 0 W/m 6,4 km/h (2 Bft) 97,87 %
08.01.2023 04:42 10,2 C 9,4 C 5,6 C 87 % 1004,0 hPa 0,0 l/m 0 min 0 min 0 W/m 12,9 km/h (3 Bft) 97,87 %
08.01.2023 04:44 10,1 C 8,9 C 5,6 C 87 % 1003,9 hPa 0,0 l/m 0 min 0 min 0 W/m 12,9 km/h (3 Bft) 97,87 %
08.01.2023 04:46 10,1 C 8,9 C 5,6 C 87 % 1003,8 hPa 0,0 l/m 0 min 0 min 0 W/m 16,1 km/h (3 Bft) 97,83 %
08.01.2023 04:48 10,1 C 8,9 C 5,6 C 87 % 1003,8 hPa 0,0 l/m 0 min 0 min 0 W/m 9,7 km/h (2 Bft) 97,87 %
08.01.2023 04:50 10,1 C 8,9 C 5,6 C 87 % 1003,8 hPa 0,0 l/m 0 min 0 min 0 W/m 12,9 km/h (3 Bft) 95,74 %
08.01.2023 04:52 10,1 C 8,9 C 5,6 C 88 % 1003,8 hPa 0,0 l/m 0 min 0 min 0 W/m 6,4 km/h (2 Bft) 100,00 %
08.01.2023 04:54 10,1 C 8,9 C 5,6 C 88 % 1003,8 hPa 0,0 l/m 0 min 0 min 0 W/m 12,9 km/h (3 Bft) 97,87 %
08.01.2023 04:56 10,0 C 8,9 C 5,6 C 88 % 1003,8 hPa 0,0 l/m 0 min 0 min 0 W/m 12,9 km/h (3 Bft) 95,74 %
08.01.2023 04:58 10,0 C 8,9 C 5,6 C 88 % 1003,7 hPa 0,0 l/m 0 min 0 min 0 W/m 12,9 km/h (3 Bft) 97,83 %
08.01.2023 05:00 10,0 C 8,9 C 5,6 C 88 % 1003,7 hPa 0,0 l/m 0 min 0 min 0 W/m 9,7 km/h (2 Bft) 97,87 %
08.01.2023 05:02 9,9 C 8,9 C 5,6 C 88 % 1003,7 hPa 0,0 l/m 0 min 0 min 0 W/m 12,9 km/h (3 Bft) 97,87 %
08.01.2023 05:04 9,9 C 8,9 C 5,6 C 88 % 1003,7 hPa 0,0 l/m 0 min 0 min 0 W/m 12,9 km/h (3 Bft) 95,74 %
08.01.2023 05:06 9,9 C 8,9 C 5,6 C 88 % 1003,7 hPa 0,0 l/m 0 min 0 min 0 W/m 12,9 km/h (3 Bft) 95,74 %
08.01.2023 05:08 9,9 C 8,9 C 5,6 C 88 % 1003,7 hPa 0,0 l/m 0 min 0 min 0 W/m 6,4 km/h (2 Bft) 93,62 %
08.01.2023 05:10 9,9 C 8,9 C 5,6 C 88 % 1003,8 hPa 0,0 l/m 0 min 0 min 0 W/m 12,9 km/h (3 Bft) 95,74 %
08.01.2023 05:12 9,9 C 8,9 C 5,6 C 88 % 1003,7 hPa 0,0 l/m 0 min 0 min 0 W/m 16,1 km/h (3 Bft) 95,65 %
08.01.2023 05:14 9,8 C 8,9 C 5,6 C 88 % 1003,7 hPa 0,0 l/m 0 min 0 min 0 W/m 6,4 km/h (2 Bft) 95,74 %
08.01.2023 05:16 9,8 C 8,9 C 5,6 C 89 % 1003,6 hPa 0,0 l/m 0 min 0 min 0 W/m 6,4 km/h (2 Bft) 95,74 %
08.01.2023 05:18 9,8 C 8,9 C 5,6 C 89 % 1003,6 hPa 0,0 l/m 0 min 0 min 0 W/m 6,4 km/h (2 Bft) 93,62 %
08.01.2023 05:20 9,8 C 8,9 C 5,6 C 89 % 1003,6 hPa 0,0 l/m 0 min 0 min 0 W/m 3,2 km/h (1 Bft) 94,74 %
08.01.2023 05:22 9,8 C 8,9 C 5,6 C 89 % 1003,6 hPa 0,0 l/m 0 min 0 min 0 W/m 6,4 km/h (2 Bft) 91,49 %
08.01.2023 05:24 9,8 C 8,9 C 5,6 C 89 % 1003,6 hPa 0,0 l/m 0 min 0 min 0 W/m 3,2 km/h (1 Bft) 95,74 %
08.01.2023 05:26 9,8 C 8,9 C 5,6 C 89 % 1003,5 hPa 0,0 l/m 0 min 0 min 0 W/m 6,4 km/h (2 Bft) 95,74 %
08.01.2023 05:28 9,8 C 8,9 C 5,6 C 89 % 1003,5 hPa 0,0 l/m 0 min 0 min 0 W/m 6,4 km/h (2 Bft) 95,74 %
08.01.2023 05:30 9,7 C 8,9 C 5,6 C 89 % 1003,5 hPa 0,0 l/m 0 min 0 min 0 W/m 9,7 km/h (2 Bft) 95,65 %
08.01.2023 05:32 9,7 C 8,9 C 5,6 C 89 % 1003,5 hPa 0,0 l/m 0 min 0 min 0 W/m 6,4 km/h (2 Bft) 95,74 %
08.01.2023 05:34 9,7 C 8,9 C 5,6 C 89 % 1003,5 hPa 0,0 l/m 0 min 0 min 0 W/m 9,7 km/h (2 Bft) 93,62 %
08.01.2023 05:36 9,7 C 8,9 C 5,6 C 89 % 1003,5 hPa 0,0 l/m 0 min 0 min 0 W/m 6,4 km/h (2 Bft) 93,62 %
08.01.2023 05:38 9,7 C 8,9 C 5,6 C 89 % 1003,6 hPa 0,0 l/m 0 min 0 min 0 W/m 16,1 km/h (3 Bft) 97,87 %
08.01.2023 05:40 9,7 C 8,9 C 5,6 C 89 % 1003,6 hPa 0,0 l/m 0 min 0 min 0 W/m 6,4 km/h (2 Bft) 95,74 %
08.01.2023 05:42 9,7 C 8,9 C 5,6 C 89 % 1003,6 hPa 0,0 l/m 0 min 0 min 0 W/m 12,9 km/h (3 Bft) 97,83 %
08.01.2023 05:44 9,7 C 8,9 C 5,6 C 89 % 1003,6 hPa 0,0 l/m 0 min 0 min 0 W/m 9,7 km/h (2 Bft) 95,74 %
08.01.2023 05:46 9,7 C 9,4 C 5,6 C 89 % 1003,6 hPa 0,0 l/m 0 min 0 min 0 W/m 16,1 km/h (3 Bft) 97,87 %
08.01.2023 05:48 9,7 C 9,4 C 6,1 C 89 % 1003,5 hPa 0,0 l/m 0 min 0 min 0 W/m 16,1 km/h (3 Bft) 100,00 %
08.01.2023 05:50 9,8 C 9,4 C 6,1 C 88 % 1003,5 hPa 0,0 l/m 0 min 0 min 0 W/m 12,9 km/h (3 Bft) 100,00 %
08.01.2023 05:52 9,8 C 9,4 C 6,1 C 88 % 1003,5 hPa 0,0 l/m 0 min 0 min 0 W/m 12,9 km/h (3 Bft) 97,87 %
08.01.2023 05:54 9,8 C 9,4 C 6,1 C 88 % 1003,5 hPa 0,0 l/m 0 min 0 min 0 W/m 12,9 km/h (3 Bft) 100,00 %
08.01.2023 05:56 9,9 C 9,4 C 6,1 C 88 % 1003,4 hPa 0,0 l/m 0 min 0 min 0 W/m 19,3 km/h (3 Bft) 100,00 %
08.01.2023 05:58 9,9 C 9,4 C 6,1 C 88 % 1003,4 hPa 0,0 l/m 0 min 0 min 0 W/m 6,4 km/h (2 Bft) 100,00 %
08.01.2023 06:00 9,9 C 9,4 C 6,1 C 87 % 1003,4 hPa 0,0 l/m 0 min 0 min 0 W/m 16,1 km/h (3 Bft) 100,00 %
08.01.2023 06:02 9,9 C 9,4 C 6,1 C 87 % 1003,4 hPa 0,0 l/m 0 min 0 min 0 W/m 12,9 km/h (3 Bft) 100,00 %
08.01.2023 06:04 10,0 C 9,4 C 6,1 C 87 % 1003,4 hPa 0,0 l/m 0 min 0 min 0 W/m 19,3 km/h (3 Bft) 100,00 %
08.01.2023 06:07 10,1 C 9,4 C 6,1 C 86 % 1003,4 hPa 0,0 l/m 0 min 0 min 0 W/m 25,7 km/h (4 Bft) 100,00 %
08.01.2023 06:08 10,1 C 9,4 C 6,1 C 86 % 1003,4 hPa 0,0 l/m 0 min 0 min 0 W/m 22,5 km/h (4 Bft) 95,65 %
08.01.2023 06:10 10,1 C 9,4 C 6,1 C 86 % 1003,4 hPa 0,0 l/m 0 min 0 min 0 W/m 12,9 km/h (3 Bft) 97,87 %
08.01.2023 06:12 10,1 C 9,4 C 6,1 C 86 % 1003,3 hPa 0,0 l/m 0 min 0 min 0 W/m 16,1 km/h (3 Bft) 100,00 %
08.01.2023 06:14 10,1 C 9,4 C 6,1 C 86 % 1003,3 hPa 0,0 l/m 0 min 0 min 0 W/m 16,1 km/h (3 Bft) 100,00 %
08.01.2023 06:16 10,2 C 9,4 C 6,1 C 85 % 1003,2 hPa 0,0 l/m 0 min 0 min 0 W/m 16,1 km/h (3 Bft) 100,00 %
08.01.2023 06:18 10,2 C 9,4 C 6,1 C 85 % 1003,3 hPa 0,0 l/m 0 min 0 min 0 W/m 22,5 km/h (4 Bft) 100,00 %
08.01.2023 06:20 10,2 C 9,4 C 6,1 C 85 % 1003,3 hPa 0,0 l/m 0 min 0 min 0 W/m 16,1 km/h (3 Bft) 100,00 %
08.01.2023 06:22 10,2 C 9,4 C 6,1 C 85 % 1003,2 hPa 0,0 l/m 0 min 0 min 0 W/m 16,1 km/h (3 Bft) 100,00 %
08.01.2023 06:24 10,2 C 9,4 C 6,1 C 85 % 1003,3 hPa 0,0 l/m 0 min 0 min 0 W/m 12,9 km/h (3 Bft) 100,00 %
08.01.2023 06:26 10,2 C 9,4 C 6,1 C 85 % 1003,2 hPa 0,0 l/m 0 min 0 min 0 W/m 19,3 km/h (3 Bft) 97,87 %
08.01.2023 06:28 10,2 C 9,4 C 5,6 C 85 % 1003,2 hPa 0,0 l/m 0 min 0 min 0 W/m 12,9 km/h (3 Bft) 100,00 %
08.01.2023 06:30 10,1 C 9,4 C 5,6 C 85 % 1003,2 hPa 0,0 l/m 0 min 0 min 0 W/m 12,9 km/h (3 Bft) 100,00 %
08.01.2023 06:32 10,1 C 9,4 C 5,6 C 85 % 1003,2 hPa 0,0 l/m 0 min 0 min 0 W/m 16,1 km/h (3 Bft) 100,00 %
08.01.2023 06:34 10,1 C 9,4 C 5,6 C 85 % 1003,1 hPa 0,0 l/m 0 min 0 min 0 W/m 16,1 km/h (3 Bft) 100,00 %
08.01.2023 06:36 10,1 C 8,9 C 5,6 C 85 % 1003,2 hPa 0,0 l/m 0 min 0 min 0 W/m 19,3 km/h (3 Bft) 95,83 %
08.01.2023 06:38 10,1 C 8,9 C 5,6 C 85 % 1003,2 hPa 0,0 l/m 0 min 0 min 0 W/m 16,1 km/h (3 Bft) 100,00 %
08.01.2023 06:40 10,1 C 8,9 C 5,6 C 85 % 1003,2 hPa 0,0 l/m 0 min 0 min 0 W/m 16,1 km/h (3 Bft) 97,87 %
08.01.2023 06:42 10,0 C 8,9 C 5,6 C 85 % 1003,2 hPa 0,0 l/m 0 min 0 min 0 W/m 12,9 km/h (3 Bft) 100,00 %
08.01.2023 06:44 10,0 C 8,9 C 5,6 C 85 % 1003,1 hPa 0,0 l/m 0 min 0 min 0 W/m 29,0 km/h (5 Bft) 97,87 %
08.01.2023 06:46 10,0 C 9,4 C 5,6 C 85 % 1003,1 hPa 0,0 l/m 0 min 0 min 0 W/m 29,0 km/h (5 Bft) 97,87 %
08.01.2023 06:48 10,0 C 9,4 C 5,6 C 85 % 1003,1 hPa 0,0 l/m 0 min 0 min 0 W/m 6,4 km/h (2 Bft) 95,74 %
08.01.2023 06:50 9,9 C 9,4 C 5,6 C 85 % 1003,0 hPa 0,0 l/m 0 min 0 min 0 W/m 9,7 km/h (2 Bft) 95,74 %
08.01.2023 06:52 9,9 C 8,9 C 5,6 C 85 % 1003,1 hPa 0,0 l/m 0 min 0 min 0 W/m 3,2 km/h (1 Bft) 97,83 %
08.01.2023 06:54 9,9 C 8,9 C 5,6 C 85 % 1003,1 hPa 0,0 l/m 0 min 0 min 0 W/m 12,9 km/h (3 Bft) 97,87 %
08.01.2023 06:56 9,9 C 9,4 C 5,6 C 85 % 1003,1 hPa 0,0 l/m 0 min 0 min 0 W/m 16,1 km/h (3 Bft) 97,87 %
08.01.2023 06:58 9,9 C 9,4 C 5,6 C 85 % 1003,1 hPa 0,0 l/m 0 min 0 min 0 W/m 19,3 km/h (3 Bft) 95,74 %
08.01.2023 07:00 9,9 C 9,4 C 5,6 C 85 % 1003,1 hPa 0,0 l/m 0 min 0 min 0 W/m 12,9 km/h (3 Bft) 97,87 %
08.01.2023 07:02 9,9 C 9,4 C 5,6 C 85 % 1003,1 hPa 0,0 l/m 0 min 0 min 0 W/m 9,7 km/h (2 Bft) 95,74 %
08.01.2023 07:04 9,9 C 9,4 C 5,6 C 85 % 1003,1 hPa 0,0 l/m 0 min 0 min 0 W/m 12,9 km/h (3 Bft) 95,74 %
08.01.2023 07:06 9,9 C 9,4 C 5,6 C 85 % 1003,0 hPa 0,0 l/m 0 min 0 min 0 W/m 9,7 km/h (2 Bft) 95,74 %
08.01.2023 07:08 9,9 C 9,4 C 5,6 C 85 % 1003,1 hPa 0,0 l/m 0 min 0 min 0 W/m 6,4 km/h (2 Bft) 93,48 %
08.01.2023 07:10 9,9 C 9,4 C 5,6 C 85 % 1003,1 hPa 0,0 l/m 0 min 0 min 0 W/m 12,9 km/h (3 Bft) 97,87 %
08.01.2023 07:12 9,9 C 8,9 C 5,0 C 85 % 1003,1 hPa 0,0 l/m 0 min 2 min 0 W/m 9,7 km/h (2 Bft) 93,62 %
08.01.2023 07:14 9,9 C 8,9 C 5,0 C 85 % 1003,4 hPa 0,2 l/m 0 min 2 min 0 W/m 12,9 km/h (3 Bft) 95,74 %
08.01.2023 07:16 9,9 C 8,9 C 4,4 C 86 % 1003,5 hPa 0,2 l/m 0 min 2 min 0 W/m 29,0 km/h (5 Bft) 93,62 %
08.01.2023 07:18 9,7 C 8,3 C 3,9 C 87 % 1003,6 hPa 0,0 l/m 0 min 2 min 0 W/m 16,1 km/h (3 Bft) 45,00 %
08.01.2023 07:20 9,6 C 8,3 C 3,9 C 87 % 1003,7 hPa 0,0 l/m 0 min 2 min 0 W/m 19,3 km/h (3 Bft) 95,74 %
08.01.2023 07:22 9,4 C 7,8 C 3,9 C 88 % 1003,8 hPa 0,0 l/m 0 min 2 min 0 W/m 22,5 km/h (4 Bft) 95,74 %
08.01.2023 07:24 9,3 C 7,8 C 3,9 C 88 % 1003,9 hPa 0,0 l/m 0 min 2 min 0 W/m 22,5 km/h (4 Bft) 95,65 %
08.01.2023 07:26 9,1 C 7,8 C 3,9 C 88 % 1003,8 hPa 0,0 l/m 0 min 0 min 0 W/m 16,1 km/h (3 Bft) 95,74 %
08.01.2023 07:28 9,0 C 7,8 C 3,9 C 89 % 1003,8 hPa 0,0 l/m 0 min 0 min 0 W/m 12,9 km/h (3 Bft) 97,87 %
08.01.2023 07:30 8,9 C 7,8 C 3,9 C 89 % 1003,8 hPa 0,0 l/m 0 min 2 min 0 W/m 9,7 km/h (2 Bft) 97,87 %
08.01.2023 07:32 8,8 C 7,8 C 3,9 C 89 % 1003,7 hPa 0,0 l/m 0 min 2 min 0 W/m 9,7 km/h (2 Bft) 97,87 %
08.01.2023 07:34 8,8 C 7,2 C 3,9 C 90 % 1003,7 hPa 0,0 l/m 0 min 0 min 0 W/m 9,7 km/h (2 Bft) 100,00 %
08.01.2023 07:36 8,7 C 7,2 C 3,9 C 90 % 1003,6 hPa 0,0 l/m 0 min 0 min 0 W/m 6,4 km/h (2 Bft) 100,00 %
08.01.2023 07:38 8,7 C 7,2 C 3,9 C 90 % 1003,7 hPa 0,2 l/m 0 min 0 min 0 W/m 12,9 km/h (3 Bft) 100,00 %
08.01.2023 07:40 8,6 C 7,2 C 3,9 C 91 % 1003,8 hPa 0,0 l/m 0 min 0 min 0 W/m 22,5 km/h (4 Bft) 100,00 %
08.01.2023 07:42 8,6 C 7,2 C 3,9 C 91 % 1003,7 hPa 0,0 l/m 0 min 0 min 0 W/m 9,7 km/h (2 Bft) 100,00 %
08.01.2023 07:44 8,6 C 7,2 C 3,9 C 91 % 1003,7 hPa 0,0 l/m 0 min 0 min 0 W/m 12,9 km/h (3 Bft) 100,00 %
08.01.2023 07:46 8,5 C 7,2 C 3,9 C 91 % 1003,7 hPa 0,0 l/m 0 min 0 min 0 W/m 9,7 km/h (2 Bft) 100,00 %
08.01.2023 07:48 8,4 C 7,2 C 3,9 C 91 % 1003,7 hPa 0,0 l/m 0 min 0 min 0 W/m 12,9 km/h (3 Bft) 100,00 %
08.01.2023 07:50 8,4 C 7,2 C 3,9 C 91 % 1003,7 hPa 0,0 l/m 0 min 0 min 0 W/m 16,1 km/h (3 Bft) 97,87 %
08.01.2023 07:52 8,4 C 7,2 C 3,9 C 91 % 1003,7 hPa 0,0 l/m 0 min 0 min 0 W/m 6,4 km/h (2 Bft) 97,83 %
08.01.2023 07:54 8,3 C 7,2 C 3,3 C 91 % 1003,7 hPa 0,0 l/m 0 min 0 min 0 W/m 12,9 km/h (3 Bft) 97,87 %
08.01.2023 07:56 8,3 C 7,2 C 3,3 C 91 % 1003,6 hPa 0,0 l/m 0 min 0 min 0 W/m 12,9 km/h (3 Bft) 97,87 %
08.01.2023 07:58 8,3 C 7,2 C 3,3 C 91 % 1003,5 hPa 0,0 l/m 0 min 0 min 0 W/m 6,4 km/h (2 Bft) 97,87 %
08.01.2023 08:00 8,2 C 7,2 C 3,3 C 91 % 1003,6 hPa 0,0 l/m 0 min 0 min 0 W/m 16,1 km/h (3 Bft) 97,87 %
08.01.2023 08:02 8,2 C 7,2 C 3,3 C 91 % 1003,7 hPa 0,0 l/m 0 min 0 min 0 W/m 9,7 km/h (2 Bft) 97,87 %
08.01.2023 08:04 8,2 C 7,2 C 3,3 C 91 % 1003,7 hPa 0,0 l/m 0 min 0 min 0 W/m 9,7 km/h (2 Bft) 95,74 %
08.01.2023 08:06 8,2 C 7,2 C 3,3 C 92 % 1003,7 hPa 0,0 l/m 0 min 0 min 0 W/m 9,7 km/h (2 Bft) 97,87 %
08.01.2023 08:08 8,2 C 7,2 C 3,3 C 92 % 1003,8 hPa 0,0 l/m 0 min 0 min 0 W/m 12,9 km/h (3 Bft) 97,83 %
08.01.2023 08:10 8,1 C 7,2 C 3,3 C 92 % 1003,8 hPa 0,0 l/m 0 min 0 min 0 W/m 12,9 km/h (3 Bft) 97,87 %
08.01.2023 08:12 8,1 C 7,2 C 3,3 C 92 % 1003,8 hPa 0,0 l/m 0 min 0 min 0 W/m 12,9 km/h (3 Bft) 97,87 %
08.01.2023 08:14 8,1 C 7,2 C 3,3 C 92 % 1003,9 hPa 0,0 l/m 0 min 0 min 0 W/m 16,1 km/h (3 Bft) 97,87 %
08.01.2023 08:16 8,1 C 7,2 C 3,3 C 92 % 1003,9 hPa 0,0 l/m 0 min 0 min 0 W/m 9,7 km/h (2 Bft) 97,87 %
08.01.2023 08:18 8,0 C 7,2 C 3,3 C 92 % 1003,9 hPa 0,0 l/m 0 min 0 min 0 W/m 9,7 km/h (2 Bft) 95,74 %
08.01.2023 08:20 8,0 C 7,2 C 3,3 C 92 % 1004,0 hPa 0,0 l/m 0 min 0 min 0 W/m 16,1 km/h (3 Bft) 97,83 %
08.01.2023 08:22 8,0 C 7,2 C 3,3 C 92 % 1003,9 hPa 0,0 l/m 0 min 0 min 0 W/m 12,9 km/h (3 Bft) 93,62 %
08.01.2023 08:24 7,9 C 7,2 C 3,3 C 92 % 1003,8 hPa 0,0 l/m 0 min 0 min 0 W/m 12,9 km/h (3 Bft) 97,87 %
08.01.2023 08:26 7,9 C 7,2 C 3,3 C 92 % 1003,9 hPa 0,0 l/m 0 min 0 min 0 W/m 12,9 km/h (3 Bft) 97,87 %
08.01.2023 08:28 7,9 C 7,2 C 3,3 C 92 % 1003,8 hPa 0,0 l/m 0 min 0 min 0 W/m 12,9 km/h (3 Bft) 93,62 %
08.01.2023 08:30 7,9 C 7,2 C 3,3 C 92 % 1003,9 hPa 0,0 l/m 0 min 0 min 0 W/m 12,9 km/h (3 Bft) 100,00 %
08.01.2023 08:32 7,9 C 7,2 C 3,3 C 92 % 1003,9 hPa 0,0 l/m 0 min 0 min 0 W/m 6,4 km/h (2 Bft) 100,00 %
08.01.2023 08:34 7,9 C 7,2 C 3,3 C 92 % 1003,8 hPa 0,0 l/m 0 min 0 min 0 W/m 12,9 km/h (3 Bft) 93,62 %
08.01.2023 08:39 7,8 C 7,2 C 3,3 C 92 % 1003,8 hPa 0,0 l/m 0 min 0 min 0 W/m 16,1 km/h (3 Bft) 100,00 %
08.01.2023 08:40 7,8 C 7,2 C 3,3 C 92 % 1003,8 hPa 0,0 l/m 0 min 0 min 0 W/m 12,9 km/h (3 Bft) 91,30 %
08.01.2023 08:42 7,8 C 7,2 C 3,3 C 92 % 1003,9 hPa 0,0 l/m 0 min 0 min 0 W/m 16,1 km/h (3 Bft) 97,87 %
08.01.2023 08:44 7,8 C 7,2 C 3,3 C 92 % 1003,8 hPa 0,0 l/m 0 min 0 min 0 W/m 12,9 km/h (3 Bft) 97,87 %
08.01.2023 08:46 7,8 C 7,2 C 3,3 C 92 % 1003,7 hPa 0,0 l/m 0 min 0 min 0 W/m 12,9 km/h (3 Bft) 97,87 %
08.01.2023 08:48 7,8 C 7,2 C 3,3 C 92 % 1003,8 hPa 0,0 l/m 0 min 0 min 0 W/m 16,1 km/h (3 Bft) 95,74 %
08.01.2023 08:50 7,8 C 7,2 C 3,3 C 92 % 1003,8 hPa 0,0 l/m 0 min 0 min 0 W/m 9,7 km/h (2 Bft) 100,00 %
08.01.2023 08:52 7,8 C 7,2 C 3,3 C 92 % 1003,8 hPa 0,0 l/m 0 min 0 min 2 W/m 6,4 km/h (2 Bft) 95,74 %
08.01.2023 08:54 7,7 C 7,2 C 3,3 C 92 % 1003,7 hPa 0,0 l/m 0 min 0 min 5 W/m 16,1 km/h (3 Bft) 95,74 %
08.01.2023 08:56 7,7 C 6,7 C 3,3 C 92 % 1003,7 hPa 0,0 l/m 0 min 0 min 5 W/m 12,9 km/h (3 Bft) 95,74 %
08.01.2023 08:58 7,7 C 6,7 C 3,3 C 92 % 1003,8 hPa 0,0 l/m 0 min 0 min 5 W/m 9,7 km/h (2 Bft) 95,74 %
08.01.2023 09:00 7,7 C 6,7 C 3,3 C 92 % 1003,8 hPa 0,0 l/m 0 min 0 min 5 W/m 12,9 km/h (3 Bft) 95,74 %
08.01.2023 09:02 7,7 C 6,7 C 3,3 C 92 % 1003,8 hPa 0,0 l/m 0 min 0 min 7 W/m 6,4 km/h (2 Bft) 95,65 %
08.01.2023 09:04 7,7 C 6,7 C 2,8 C 92 % 1003,7 hPa 0,0 l/m 0 min 0 min 7 W/m 6,4 km/h (2 Bft) 95,74 %
08.01.2023 09:06 7,6 C 6,7 C 2,8 C 92 % 1003,7 hPa 0,0 l/m 0 min 0 min 7 W/m 6,4 km/h (2 Bft) 97,87 %
08.01.2023 09:08 7,6 C 6,7 C 2,8 C 92 % 1003,7 hPa 0,0 l/m 0 min 0 min 9 W/m 3,2 km/h (1 Bft) 95,24 %
08.01.2023 09:10 7,6 C 6,7 C 2,8 C 91 % 1003,7 hPa 0,0 l/m 0 min 0 min 9 W/m 6,4 km/h (2 Bft) 91,49 %
08.01.2023 09:12 7,6 C 6,7 C 2,8 C 91 % 1003,7 hPa 0,0 l/m 0 min 0 min 9 W/m 3,2 km/h (1 Bft) 95,74 %
08.01.2023 09:14 7,5 C 6,7 C 2,8 C 91 % 1003,7 hPa 0,0 l/m 0 min 0 min 9 W/m 6,4 km/h (2 Bft) 93,62 %
08.01.2023 09:16 7,5 C 6,7 C 2,8 C 91 % 1003,7 hPa 0,0 l/m 0 min 0 min 11 W/m 6,4 km/h (2 Bft) 95,74 %
08.01.2023 09:18 7,4 C 6,7 C 2,8 C 91 % 1003,7 hPa 0,0 l/m 0 min 0 min 11 W/m 3,2 km/h (1 Bft) 95,74 %
08.01.2023 09:20 7,4 C 6,7 C 2,8 C 91 % 1003,7 hPa 0,0 l/m 0 min 0 min 11 W/m 12,9 km/h (3 Bft) 95,65 %
08.01.2023 09:22 7,4 C 6,7 C 2,8 C 91 % 1003,6 hPa 0,0 l/m 0 min 0 min 11 W/m 6,4 km/h (2 Bft) 97,87 %
08.01.2023 09:24 7,4 C 6,7 C 2,8 C 91 % 1003,6 hPa 0,0 l/m 0 min 0 min 12 W/m 6,4 km/h (2 Bft) 97,87 %
08.01.2023 09:26 7,4 C 6,7 C 2,8 C 91 % 1003,6 hPa 0,0 l/m 0 min 0 min 12 W/m 3,2 km/h (1 Bft) 97,87 %
08.01.2023 09:28 7,3 C 6,1 C 2,8 C 91 % 1003,5 hPa 0,0 l/m 0 min 0 min 12 W/m 3,2 km/h (1 Bft) 97,87 %
08.01.2023 09:30 7,3 C 6,1 C 2,8 C 91 % 1003,5 hPa 0,0 l/m 0 min 0 min 13 W/m 6,4 km/h (2 Bft) 95,74 %
08.01.2023 09:32 7,3 C 6,1 C 2,8 C 91 % 1003,5 hPa 0,0 l/m 0 min 0 min 14 W/m 6,4 km/h (2 Bft) 97,87 %
08.01.2023 09:34 7,3 C 6,1 C 2,8 C 91 % 1003,6 hPa 0,0 l/m 0 min 0 min 16 W/m 3,2 km/h (1 Bft) 97,83 %
08.01.2023 09:36 7,3 C 6,7 C 2,8 C 91 % 1003,6 hPa 0,0 l/m 0 min 0 min 18 W/m 3,2 km/h (1 Bft) 97,87 %
08.01.2023 09:38 7,2 C 6,7 C 2,8 C 91 % 1003,5 hPa 0,0 l/m 0 min 0 min 18 W/m 6,4 km/h (2 Bft) 97,87 %
08.01.2023 09:40 7,2 C 6,7 C 2,8 C 91 % 1003,5 hPa 0,0 l/m 0 min 0 min 19 W/m 6,4 km/h (2 Bft) 97,87 %
08.01.2023 09:42 7,2 C 6,7 C 2,8 C 91 % 1003,5 hPa 0,0 l/m 0 min 0 min 20 W/m 6,4 km/h (2 Bft) 95,74 %
08.01.2023 09:44 7,2 C 6,7 C 2,8 C 91 % 1003,5 hPa 0,0 l/m 0 min 0 min 19 W/m 6,4 km/h (2 Bft) 97,87 %
08.01.2023 09:46 7,2 C 6,7 C 2,8 C 91 % 1003,5 hPa 0,0 l/m 0 min 0 min 20 W/m 6,4 km/h (2 Bft) 100,00 %
08.01.2023 09:48 7,2 C 6,7 C 2,8 C 91 % 1003,4 hPa 0,0 l/m 0 min 0 min 23 W/m 6,4 km/h (2 Bft) 100,00 %
08.01.2023 09:50 7,2 C 6,7 C 2,8 C 91 % 1003,4 hPa 0,0 l/m 0 min 0 min 25 W/m 6,4 km/h (2 Bft) 100,00 %
08.01.2023 09:52 7,2 C 6,7 C 2,8 C 91 % 1003,4 hPa 0,0 l/m 0 min 0 min 28 W/m 12,9 km/h (3 Bft) 97,87 %
08.01.2023 09:54 7,2 C 6,7 C 2,8 C 91 % 1003,4 hPa 0,0 l/m 0 min 0 min 34 W/m 6,4 km/h (2 Bft) 97,87 %
08.01.2023 09:56 7,2 C 6,7 C 2,8 C 91 % 1003,3 hPa 0,0 l/m 0 min 0 min 37 W/m 3,2 km/h (1 Bft) 100,00 %
08.01.2023 09:58 7,2 C 6,7 C 2,8 C 91 % 1003,3 hPa 0,0 l/m 0 min 0 min 36 W/m 6,4 km/h (2 Bft) 100,00 %
08.01.2023 10:00 7,2 C 6,7 C 2,8 C 91 % 1003,3 hPa 0,0 l/m 0 min 0 min 36 W/m 6,4 km/h (2 Bft) 100,00 %
08.01.2023 10:02 7,2 C 6,7 C 2,8 C 92 % 1003,3 hPa 0,0 l/m 0 min 0 min 33 W/m 3,2 km/h (1 Bft) 100,00 %
08.01.2023 10:04 7,2 C 6,7 C 2,8 C 91 % 1003,3 hPa 0,0 l/m 0 min 0 min 36 W/m 3,2 km/h (1 Bft) 100,00 %
08.01.2023 10:06 7,2 C 7,2 C 2,8 C 92 % 1003,4 hPa 0,0 l/m 0 min 0 min 40 W/m 6,4 km/h (2 Bft) 100,00 %
08.01.2023 10:08 7,2 C 7,2 C 2,8 C 92 % 1003,4 hPa 0,0 l/m 0 min 0 min 42 W/m 9,7 km/h (2 Bft) 100,00 %
08.01.2023 10:10 7,2 C 7,2 C 2,8 C 92 % 1003,4 hPa 0,0 l/m 0 min 0 min 48 W/m 6,4 km/h (2 Bft) 100,00 %
08.01.2023 10:12 7,3 C 7,2 C 2,8 C 92 % 1003,4 hPa 0,0 l/m 0 min 0 min 77 W/m 6,4 km/h (2 Bft) 97,87 %
08.01.2023 10:14 7,3 C 7,2 C 2,8 C 92 % 1003,4 hPa 0,0 l/m 2 min 0 min 115 W/m 9,7 km/h (2 Bft) 100,00 %
08.01.2023 10:16 7,3 C 7,2 C 2,8 C 92 % 1003,4 hPa 0,0 l/m 2 min 0 min 151 W/m 6,4 km/h (2 Bft) 97,87 %
08.01.2023 10:18 7,3 C 7,8 C 3,3 C 92 % 1003,4 hPa 0,0 l/m 2 min 0 min 171 W/m 9,7 km/h (2 Bft) 97,83 %
08.01.2023 10:20 7,4 C 7,8 C 3,3 C 92 % 1003,4 hPa 0,0 l/m 2 min 0 min 188 W/m 6,4 km/h (2 Bft) 100,00 %
08.01.2023 10:22 7,4 C 8,3 C 3,3 C 92 % 1003,3 hPa 0,0 l/m 2 min 0 min 203 W/m 3,2 km/h (1 Bft) 100,00 %
08.01.2023 10:24 7,5 C 8,3 C 3,3 C 92 % 1003,4 hPa 0,0 l/m 2 min 0 min 211 W/m 9,7 km/h (2 Bft) 97,87 %
08.01.2023 10:26 7,6 C 8,3 C 3,3 C 92 % 1003,4 hPa 0,0 l/m 2 min 0 min 149 W/m 3,2 km/h (1 Bft) 100,00 %
08.01.2023 10:28 7,6 C 8,3 C 3,9 C 92 % 1003,3 hPa 0,0 l/m 0 min 0 min 80 W/m 3,2 km/h (1 Bft) 100,00 %
08.01.2023 10:30 7,7 C 8,3 C 3,3 C 92 % 1003,3 hPa 0,0 l/m 0 min 0 min 77 W/m 9,7 km/h (2 Bft) 95,74 %
08.01.2023 10:32 7,8 C 8,3 C 3,9 C 92 % 1003,3 hPa 0,0 l/m 0 min 0 min 78 W/m 12,9 km/h (3 Bft) 97,83 %
08.01.2023 10:34 7,8 C 8,3 C 3,9 C 92 % 1003,3 hPa 0,0 l/m 0 min 0 min 76 W/m 16,1 km/h (3 Bft) 97,87 %
08.01.2023 10:36 7,8 C 8,3 C 3,9 C 92 % 1003,3 hPa 0,0 l/m 0 min 0 min 72 W/m 6,4 km/h (2 Bft) 95,74 %
08.01.2023 10:38 7,9 C 8,3 C 3,9 C 92 % 1003,3 hPa 0,0 l/m 0 min 0 min 77 W/m 12,9 km/h (3 Bft) 97,87 %
08.01.2023 10:40 7,9 C 8,3 C 3,9 C 92 % 1003,3 hPa 0,0 l/m 0 min 0 min 87 W/m 9,7 km/h (2 Bft) 97,87 %
08.01.2023 10:42 8,0 C 8,3 C 3,9 C 92 % 1003,3 hPa 0,0 l/m 0 min 0 min 98 W/m 6,4 km/h (2 Bft) 95,74 %
08.01.2023 10:44 8,1 C 8,9 C 3,9 C 92 % 1003,3 hPa 0,0 l/m 0 min 0 min 110 W/m 9,7 km/h (2 Bft) 95,74 %
08.01.2023 10:46 8,1 C 8,9 C 3,9 C 92 % 1003,3 hPa 0,0 l/m 0 min 0 min 117 W/m 12,9 km/h (3 Bft) 95,65 %
08.01.2023 10:48 8,2 C 8,9 C 3,9 C 92 % 1003,2 hPa 0,0 l/m 2 min 0 min 123 W/m 9,7 km/h (2 Bft) 95,74 %
08.01.2023 10:50 8,2 C 8,9 C 3,9 C 91 % 1003,2 hPa 0,0 l/m 0 min 0 min 117 W/m 19,3 km/h (3 Bft) 95,74 %
08.01.2023 10:52 8,3 C 8,9 C 3,9 C 91 % 1003,1 hPa 0,0 l/m 0 min 0 min 108 W/m 16,1 km/h (3 Bft) 97,87 %
08.01.2023 10:54 8,3 C 8,9 C 3,9 C 91 % 1003,2 hPa 0,0 l/m 0 min 0 min 109 W/m 9,7 km/h (2 Bft) 95,74 %
08.01.2023 10:56 8,4 C 8,9 C 4,4 C 91 % 1003,1 hPa 0,0 l/m 0 min 0 min 119 W/m 12,9 km/h (3 Bft) 97,87 %
08.01.2023 10:58 8,5 C 8,9 C 4,4 C 91 % 1003,2 hPa 0,0 l/m 0 min 0 min 125 W/m 9,7 km/h (2 Bft) 100,00 %
08.01.2023 11:00 8,6 C 8,9 C 4,4 C 91 % 1003,2 hPa 0,0 l/m 0 min 0 min 125 W/m 16,1 km/h (3 Bft) 91,30 %
08.01.2023 11:02 8,6 C 8,9 C 4,4 C 91 % 1003,1 hPa 0,0 l/m 0 min 0 min 127 W/m 16,1 km/h (3 Bft) 97,87 %
08.01.2023 11:04 8,7 C 9,4 C 4,4 C 91 % 1003,1 hPa 0,0 l/m 0 min 0 min 127 W/m 6,4 km/h (2 Bft) 97,87 %
08.01.2023 11:06 8,7 C 9,4 C 4,4 C 91 % 1003,1 hPa 0,0 l/m 0 min 0 min 128 W/m 16,1 km/h (3 Bft) 98,31 %
08.01.2023 11:08 8,8 C 9,4 C 4,4 C 91 % 1003,1 hPa 0,0 l/m 2 min 0 min 135 W/m 6,4 km/h (2 Bft) 100,00 %
08.01.2023 11:10 8,8 C 9,4 C 4,4 C 91 % 1003,0 hPa 0,0 l/m 0 min 0 min 122 W/m 16,1 km/h (3 Bft) 100,00 %
08.01.2023 11:12 8,9 C 9,4 C 4,4 C 90 % 1002,9 hPa 0,0 l/m 2 min 0 min 147 W/m 9,7 km/h (2 Bft) 95,74 %
08.01.2023 11:14 8,9 C 10,0 C 5,0 C 91 % 1002,9 hPa 0,0 l/m 2 min 0 min 245 W/m 16,1 km/h (3 Bft) 97,87 %
08.01.2023 11:16 9,1 C 10,0 C 5,0 C 91 % 1002,9 hPa 0,0 l/m 2 min 0 min 199 W/m 12,9 km/h (3 Bft) 95,74 %
08.01.2023 11:18 9,1 C 10,0 C 5,0 C 90 % 1002,8 hPa 0,0 l/m 0 min 0 min 137 W/m 16,1 km/h (3 Bft) 97,83 %
08.01.2023 11:20 9,2 C 10,0 C 5,0 C 90 % 1002,8 hPa 0,0 l/m 0 min 0 min 97 W/m 9,7 km/h (2 Bft) 97,87 %
08.01.2023 11:22 9,3 C 10,0 C 5,0 C 90 % 1002,7 hPa 0,0 l/m 0 min 0 min 105 W/m 6,4 km/h (2 Bft) 95,74 %
08.01.2023 11:24 9,3 C 10,6 C 5,0 C 90 % 1002,7 hPa 0,0 l/m 0 min 0 min 117 W/m 9,7 km/h (2 Bft) 100,00 %
08.01.2023 11:26 9,3 C 10,6 C 5,0 C 90 % 1002,6 hPa 0,0 l/m 0 min 0 min 120 W/m 12,9 km/h (3 Bft) 97,87 %
08.01.2023 11:28 9,4 C 10,6 C 5,0 C 89 % 1002,6 hPa 0,0 l/m 0 min 0 min 110 W/m 9,7 km/h (2 Bft) 97,87 %
08.01.2023 11:30 9,4 C 10,0 C 5,0 C 89 % 1002,6 hPa 0,0 l/m 0 min 0 min 97 W/m 12,9 km/h (3 Bft) 95,74 %
08.01.2023 11:32 9,5 C 10,0 C 5,0 C 89 % 1002,5 hPa 0,0 l/m 0 min 0 min 96 W/m 16,1 km/h (3 Bft) 91,30 %
08.01.2023 11:34 9,6 C 10,0 C 5,0 C 89 % 1002,5 hPa 0,0 l/m 0 min 0 min 119 W/m 12,9 km/h (3 Bft) 95,74 %
08.01.2023 11:36 9,6 C 10,0 C 5,0 C 89 % 1002,5 hPa 0,0 l/m 0 min 0 min 142 W/m 16,1 km/h (3 Bft) 95,74 %
08.01.2023 11:38 9,6 C 10,0 C 5,0 C 89 % 1002,4 hPa 0,0 l/m 0 min 0 min 136 W/m 16,1 km/h (3 Bft) 95,74 %
08.01.2023 11:40 9,7 C 10,0 C 5,0 C 89 % 1002,4 hPa 0,0 l/m 0 min 0 min 130 W/m 16,1 km/h (3 Bft) 97,87 %
08.01.2023 11:42 9,7 C 10,0 C 5,6 C 88 % 1002,4 hPa 0,0 l/m 0 min 0 min 108 W/m 22,5 km/h (4 Bft) 95,74 %
08.01.2023 11:44 9,7 C 10,0 C 6,1 C 88 % 1002,3 hPa 0,0 l/m 0 min 0 min 95 W/m 16,1 km/h (3 Bft) 95,74 %
08.01.2023 11:46 9,8 C 10,0 C 6,1 C 88 % 1002,2 hPa 0,0 l/m 0 min 0 min 101 W/m 12,9 km/h (3 Bft) 95,65 %
08.01.2023 11:48 9,8 C 10,0 C 6,1 C 87 % 1002,2 hPa 0,0 l/m 0 min 0 min 124 W/m 6,4 km/h (2 Bft) 95,74 %
08.01.2023 11:50 9,8 C 10,6 C 6,1 C 87 % 1002,1 hPa 0,0 l/m 0 min 0 min 139 W/m 12,9 km/h (3 Bft) 93,62 %
08.01.2023 11:52 9,8 C 10,6 C 6,1 C 87 % 1002,1 hPa 0,0 l/m 0 min 0 min 130 W/m 9,7 km/h (2 Bft) 95,74 %
08.01.2023 11:54 9,9 C 11,1 C 6,7 C 87 % 1002,1 hPa 0,0 l/m 2 min 0 min 169 W/m 6,4 km/h (2 Bft) 95,74 %
08.01.2023 11:56 10,0 C 10,6 C 6,7 C 87 % 1002,0 hPa 0,0 l/m 0 min 0 min 113 W/m 19,3 km/h (3 Bft) 97,87 %
08.01.2023 11:58 10,1 C 10,6 C 6,7 C 87 % 1002,0 hPa 0,0 l/m 0 min 0 min 76 W/m 19,3 km/h (3 Bft) 95,74 %
08.01.2023 12:00 10,1 C 10,6 C 6,7 C 86 % 1002,0 hPa 0,0 l/m 0 min 0 min 78 W/m 16,1 km/h (3 Bft) 95,65 %
08.01.2023 12:02 10,1 C 10,0 C 6,7 C 86 % 1002,0 hPa 0,0 l/m 0 min 0 min 92 W/m 16,1 km/h (3 Bft) 97,87 %
08.01.2023 12:04 10,1 C 10,0 C 6,7 C 86 % 1002,0 hPa 0,0 l/m 0 min 0 min 99 W/m 16,1 km/h (3 Bft) 93,62 %
08.01.2023 12:08 10,1 C 10,0 C 6,7 C 85 % 1001,9 hPa 0,0 l/m 0 min 0 min 92 W/m 19,3 km/h (3 Bft) 95,79 %
08.01.2023 12:10 10,2 C 10,0 C 6,1 C 85 % 1001,8 hPa 0,0 l/m 0 min 0 min 63 W/m 16,1 km/h (3 Bft) 97,87 %
08.01.2023 12:12 10,2 C 10,0 C 6,1 C 85 % 1001,7 hPa 0,0 l/m 0 min 2 min 56 W/m 16,1 km/h (3 Bft) 97,87 %
08.01.2023 12:14 10,2 C 9,4 C 6,1 C 85 % 1001,8 hPa 0,0 l/m 0 min 0 min 40 W/m 16,1 km/h (3 Bft) 97,87 %
08.01.2023 12:16 10,2 C 9,4 C 6,1 C 85 % 1001,8 hPa 0,0 l/m 0 min 2 min 40 W/m 9,7 km/h (2 Bft) 97,87 %
08.01.2023 12:18 10,2 C 9,4 C 6,1 C 85 % 1001,8 hPa 0,0 l/m 0 min 2 min 49 W/m 6,4 km/h (2 Bft) 100,00 %
08.01.2023 12:20 10,2 C 9,4 C 6,1 C 85 % 1001,6 hPa 0,0 l/m 0 min 2 min 53 W/m 12,9 km/h (3 Bft) 100,00 %
08.01.2023 12:22 10,2 C 9,4 C 5,6 C 85 % 1001,7 hPa 0,0 l/m 0 min 0 min 48 W/m 6,4 km/h (2 Bft) 100,00 %
08.01.2023 12:24 10,2 C 9,4 C 5,6 C 85 % 1001,6 hPa 0,0 l/m 0 min 2 min 40 W/m 12,9 km/h (3 Bft) 97,87 %
08.01.2023 12:26 10,2 C 9,4 C 5,6 C 85 % 1001,6 hPa 0,0 l/m 0 min 2 min 47 W/m 9,7 km/h (2 Bft) 100,00 %
08.01.2023 12:28 10,2 C 9,4 C 5,6 C 86 % 1001,6 hPa 0,0 l/m 0 min 2 min 53 W/m 9,7 km/h (2 Bft) 97,87 %
08.01.2023 12:30 10,2 C 9,4 C 5,0 C 86 % 1001,7 hPa 0,0 l/m 0 min 2 min 47 W/m 12,9 km/h (3 Bft) 100,00 %
08.01.2023 12:32 10,1 C 9,4 C 5,0 C 86 % 1001,6 hPa 0,0 l/m 0 min 2 min 39 W/m 16,1 km/h (3 Bft) 97,87 %
08.01.2023 12:34 10,1 C 9,4 C 5,0 C 86 % 1001,6 hPa 0,2 l/m 0 min 2 min 38 W/m 6,4 km/h (2 Bft) 97,87 %
08.01.2023 12:36 10,1 C 8,9 C 4,4 C 87 % 1001,6 hPa 0,2 l/m 0 min 2 min 32 W/m 12,9 km/h (3 Bft) 95,74 %
08.01.2023 12:38 10,1 C 8,9 C 4,4 C 87 % 1001,7 hPa 0,0 l/m 0 min 2 min 26 W/m 22,5 km/h (4 Bft) 97,87 %
08.01.2023 12:40 9,9 C 8,3 C 4,4 C 87 % 1001,8 hPa 0,6 l/m 0 min 2 min 20 W/m 22,5 km/h (4 Bft) 95,74 %
08.01.2023 12:42 9,8 C 7,8 C 4,4 C 88 % 1001,8 hPa 0,4 l/m 0 min 2 min 20 W/m 35,4 km/h (5 Bft) 95,74 %
08.01.2023 12:44 9,6 C 6,7 C 3,9 C 87 % 1001,8 hPa 0,6 l/m 0 min 2 min 17 W/m 38,6 km/h (5 Bft) 95,65 %
08.01.2023 12:46 9,3 C 6,1 C 3,3 C 86 % 1001,7 hPa 0,0 l/m 0 min 2 min 16 W/m 48,3 km/h (6 Bft) 95,74 %
08.01.2023 12:48 9,1 C 6,1 C 3,3 C 86 % 1001,8 hPa 0,2 l/m 0 min 2 min 16 W/m 32,2 km/h (5 Bft) 97,87 %
08.01.2023 12:50 8,9 C 6,1 C 3,3 C 87 % 1001,7 hPa 0,2 l/m 0 min 2 min 18 W/m 32,2 km/h (5 Bft) 97,87 %
08.01.2023 12:52 8,8 C 6,1 C 3,3 C 88 % 1001,6 hPa 0,4 l/m 0 min 2 min 19 W/m 41,8 km/h (6 Bft) 97,87 %
08.01.2023 12:54 8,7 C 6,7 C 3,3 C 88 % 1001,7 hPa 0,0 l/m 0 min 2 min 19 W/m 22,5 km/h (4 Bft) 97,87 %
08.01.2023 12:56 8,6 C 6,7 C 3,3 C 89 % 1001,6 hPa 0,0 l/m 0 min 2 min 27 W/m 22,5 km/h (4 Bft) 97,87 %
08.01.2023 12:58 8,5 C 6,7 C 3,3 C 89 % 1001,6 hPa 0,2 l/m 0 min 2 min 60 W/m 22,5 km/h (4 Bft) 97,83 %
08.01.2023 13:00 8,5 C 7,2 C 3,9 C 90 % 1001,5 hPa 0,2 l/m 0 min 2 min 153 W/m 22,5 km/h (4 Bft) 97,92 %
08.01.2023 13:02 8,4 C 7,2 C 3,9 C 90 % 1001,5 hPa 0,0 l/m 2 min 2 min 190 W/m 12,9 km/h (3 Bft) 94,44 %
08.01.2023 13:04 8,4 C 7,2 C 3,9 C 90 % 1001,5 hPa 0,0 l/m 2 min 0 min 190 W/m 19,3 km/h (3 Bft) 97,83 %
08.01.2023 13:06 8,4 C 7,2 C 3,9 C 91 % 1001,5 hPa 0,0 l/m 0 min 0 min 127 W/m 16,1 km/h (3 Bft) 98,31 %
08.01.2023 13:08 8,4 C 7,2 C 3,9 C 91 % 1001,4 hPa 0,0 l/m 0 min 0 min 98 W/m 29,0 km/h (5 Bft) 100,00 %
08.01.2023 13:10 8,4 C 7,8 C 3,9 C 91 % 1001,4 hPa 0,0 l/m 0 min 0 min 137 W/m 19,3 km/h (3 Bft) 100,00 %
08.01.2023 13:12 8,4 C 7,8 C 3,9 C 91 % 1001,4 hPa 0,0 l/m 2 min 0 min 160 W/m 16,1 km/h (3 Bft) 97,87 %
08.01.2023 13:14 8,6 C 10,0 C 3,9 C 92 % 1001,4 hPa 0,0 l/m 2 min 0 min 270 W/m 29,0 km/h (5 Bft) 100,00 %
08.01.2023 13:16 8,6 C 10,6 C 3,9 C 92 % 1001,3 hPa 0,0 l/m 2 min 0 min 325 W/m 22,5 km/h (4 Bft) 97,87 %
08.01.2023 13:18 8,8 C 11,7 C 3,9 C 92 % 1001,3 hPa 0,0 l/m 2 min 0 min 293 W/m 16,1 km/h (3 Bft) 100,00 %
08.01.2023 13:20 8,8 C 12,2 C 3,9 C 92 % 1001,4 hPa 0,0 l/m 2 min 0 min 282 W/m 29,0 km/h (5 Bft) 100,00 %
08.01.2023 13:22 8,9 C 12,2 C 3,9 C 92 % 1001,3 hPa 0,0 l/m 2 min 0 min 279 W/m 25,7 km/h (4 Bft) 100,00 %
08.01.2023 13:24 9,1 C 12,8 C 3,9 C 91 % 1001,2 hPa 0,0 l/m 2 min 0 min 279 W/m 29,0 km/h (5 Bft) 100,00 %
08.01.2023 13:26 9,1 C 13,3 C 3,9 C 91 % 1001,3 hPa 0,0 l/m 2 min 0 min 278 W/m 25,7 km/h (4 Bft) 100,00 %
08.01.2023 13:28 9,2 C 13,3 C 3,9 C 91 % 1001,2 hPa 0,0 l/m 2 min 0 min 278 W/m 19,3 km/h (3 Bft) 100,00 %
08.01.2023 13:30 9,3 C 12,8 C 3,9 C 91 % 1001,2 hPa 0,0 l/m 2 min 0 min 276 W/m 19,3 km/h (3 Bft) 100,00 %
08.01.2023 13:32 9,4 C 13,3 C 3,9 C 91 % 1001,2 hPa 0,0 l/m 2 min 0 min 275 W/m 19,3 km/h (3 Bft) 100,00 %
08.01.2023 13:34 9,4 C 13,3 C 3,9 C 90 % 1001,2 hPa 0,0 l/m 2 min 0 min 274 W/m 22,5 km/h (4 Bft) 100,00 %
08.01.2023 13:36 9,5 C 13,3 C 3,9 C 90 % 1001,1 hPa 0,0 l/m 2 min 0 min 271 W/m 19,3 km/h (3 Bft) 100,00 %
08.01.2023 13:38 9,6 C 13,9 C 4,4 C 90 % 1001,1 hPa 0,0 l/m 2 min 0 min 270 W/m 32,2 km/h (5 Bft) 97,87 %
08.01.2023 13:40 9,6 C 13,9 C 4,4 C 90 % 1001,2 hPa 0,0 l/m 2 min 0 min 268 W/m 29,0 km/h (5 Bft) 100,00 %
08.01.2023 13:42 9,7 C 13,9 C 4,4 C 89 % 1001,1 hPa 0,0 l/m 2 min 0 min 265 W/m 19,3 km/h (3 Bft) 100,00 %
08.01.2023 13:44 9,7 C 13,9 C 4,4 C 89 % 1001,1 hPa 0,0 l/m 2 min 0 min 264 W/m 25,7 km/h (4 Bft) 100,00 %
08.01.2023 13:46 9,8 C 13,9 C 4,4 C 89 % 1001,2 hPa 0,0 l/m 2 min 0 min 261 W/m 22,5 km/h (4 Bft) 100,00 %
08.01.2023 13:48 9,9 C 14,4 C 4,4 C 89 % 1001,0 hPa 0,0 l/m 2 min 0 min 261 W/m 16,1 km/h (3 Bft) 100,00 %
08.01.2023 13:50 9,9 C 13,9 C 4,4 C 89 % 1001,1 hPa 0,0 l/m 2 min 0 min 260 W/m 25,7 km/h (4 Bft) 100,00 %
08.01.2023 13:52 9,9 C 13,9 C 4,4 C 88 % 1001,0 hPa 0,0 l/m 2 min 0 min 257 W/m 22,5 km/h (4 Bft) 100,00 %
08.01.2023 13:54 9,9 C 13,9 C 4,4 C 88 % 1000,9 hPa 0,0 l/m 2 min 0 min 256 W/m 25,7 km/h (4 Bft) 97,87 %
08.01.2023 13:56 10,0 C 12,8 C 4,4 C 88 % 1000,9 hPa 0,0 l/m 2 min 0 min 255 W/m 22,5 km/h (4 Bft) 100,00 %
08.01.2023 13:58 10,1 C 12,2 C 4,4 C 87 % 1000,9 hPa 0,0 l/m 2 min 0 min 252 W/m 29,0 km/h (5 Bft) 95,74 %
08.01.2023 14:00 10,1 C 12,8 C 4,4 C 87 % 1000,9 hPa 0,0 l/m 2 min 0 min 250 W/m 32,2 km/h (5 Bft) 100,00 %
08.01.2023 14:02 10,1 C 12,8 C 4,4 C 87 % 1000,9 hPa 0,0 l/m 2 min 0 min 248 W/m 25,7 km/h (4 Bft) 97,83 %
08.01.2023 14:04 10,1 C 12,8 C 4,4 C 87 % 1000,9 hPa 0,0 l/m 2 min 0 min 244 W/m 22,5 km/h (4 Bft) 97,87 %
08.01.2023 14:06 10,2 C 12,2 C 4,4 C 86 % 1000,8 hPa 0,0 l/m 2 min 0 min 243 W/m 25,7 km/h (4 Bft) 96,61 %
08.01.2023 14:08 10,2 C 12,2 C 4,4 C 86 % 1000,9 hPa 0,0 l/m 2 min 0 min 232 W/m 16,1 km/h (3 Bft) 97,14 %
08.01.2023 14:10 10,3 C 12,2 C 4,4 C 86 % 1000,9 hPa 0,0 l/m 2 min 0 min 238 W/m 25,7 km/h (4 Bft) 95,74 %
08.01.2023 14:12 10,3 C 11,7 C 4,4 C 85 % 1000,8 hPa 0,0 l/m 2 min 0 min 240 W/m 19,3 km/h (3 Bft) 97,87 %
08.01.2023 14:14 10,3 C 11,7 C 4,4 C 85 % 1000,8 hPa 0,0 l/m 2 min 0 min 209 W/m 19,3 km/h (3 Bft) 97,87 %
08.01.2023 14:16 10,3 C 11,1 C 4,4 C 85 % 1000,8 hPa 0,0 l/m 2 min 0 min 173 W/m 29,0 km/h (5 Bft) 95,65 %
08.01.2023 14:18 10,3 C 11,7 C 4,4 C 85 % 1000,8 hPa 0,0 l/m 0 min 0 min 120 W/m 22,5 km/h (4 Bft) 95,74 %
08.01.2023 14:20 10,3 C 11,1 C 4,4 C 84 % 1000,7 hPa 0,0 l/m 2 min 0 min 206 W/m 19,3 km/h (3 Bft) 93,62 %
08.01.2023 14:22 10,3 C 11,1 C 4,4 C 84 % 1000,7 hPa 0,0 l/m 2 min 0 min 213 W/m 25,7 km/h (4 Bft) 95,74 %
08.01.2023 14:24 10,3 C 10,6 C 4,4 C 84 % 1000,6 hPa 0,0 l/m 2 min 0 min 211 W/m 32,2 km/h (5 Bft) 95,74 %
08.01.2023 14:26 10,4 C 10,6 C 4,4 C 84 % 1000,5 hPa 0,0 l/m 2 min 0 min 209 W/m 16,1 km/h (3 Bft) 95,74 %
08.01.2023 14:28 10,4 C 10,6 C 4,4 C 84 % 1000,6 hPa 0,0 l/m 2 min 0 min 173 W/m 19,3 km/h (3 Bft) 91,49 %
08.01.2023 14:30 10,4 C 10,6 C 4,4 C 84 % 1000,6 hPa 0,0 l/m 2 min 0 min 196 W/m 19,3 km/h (3 Bft) 93,48 %
08.01.2023 14:32 10,4 C 11,1 C 4,4 C 84 % 1000,6 hPa 0,0 l/m 2 min 0 min 201 W/m 16,1 km/h (3 Bft) 95,74 %
08.01.2023 14:34 10,4 C 11,7 C 4,4 C 84 % 1000,5 hPa 0,0 l/m 2 min 0 min 199 W/m 19,3 km/h (3 Bft) 95,74 %
08.01.2023 14:36 10,4 C 11,7 C 4,4 C 84 % 1000,5 hPa 0,0 l/m 2 min 0 min 196 W/m 22,5 km/h (4 Bft) 95,74 %
08.01.2023 14:38 10,4 C 11,1 C 4,4 C 84 % 1000,5 hPa 0,0 l/m 2 min 0 min 193 W/m 16,1 km/h (3 Bft) 95,74 %
08.01.2023 14:40 10,5 C 11,1 C 4,4 C 84 % 1000,4 hPa 0,0 l/m 2 min 0 min 164 W/m 22,5 km/h (4 Bft) 95,74 %
08.01.2023 14:42 10,5 C 11,1 C 4,4 C 83 % 1000,4 hPa 0,0 l/m 2 min 0 min 167 W/m 29,0 km/h (5 Bft) 95,74 %
08.01.2023 14:44 10,5 C 10,6 C 4,4 C 83 % 1000,4 hPa 0,0 l/m 2 min 0 min 160 W/m 22,5 km/h (4 Bft) 92,59 %
08.01.2023 14:46 10,4 C 10,0 C 4,4 C 83 % 1000,4 hPa 0,0 l/m 0 min 0 min 49 W/m 25,7 km/h (4 Bft) 95,74 %
08.01.2023 14:48 10,4 C 10,0 C 4,4 C 83 % 1000,4 hPa 0,0 l/m 0 min 0 min 53 W/m 16,1 km/h (3 Bft) 97,87 %
08.01.2023 14:50 10,4 C 10,0 C 4,4 C 83 % 1000,4 hPa 0,0 l/m 0 min 0 min 78 W/m 19,3 km/h (3 Bft) 95,74 %
08.01.2023 14:52 10,4 C 10,0 C 4,4 C 83 % 1000,4 hPa 0,0 l/m 0 min 0 min 73 W/m 22,5 km/h (4 Bft) 97,87 %
08.01.2023 14:54 10,3 C 10,0 C 4,4 C 83 % 1000,3 hPa 0,0 l/m 0 min 0 min 89 W/m 19,3 km/h (3 Bft) 97,83 %
08.01.2023 14:56 10,3 C 10,6 C 4,4 C 83 % 1000,3 hPa 0,0 l/m 2 min 0 min 126 W/m 12,9 km/h (3 Bft) 97,87 %
08.01.2023 14:58 10,3 C 10,6 C 4,4 C 83 % 1000,3 hPa 0,0 l/m 2 min 0 min 107 W/m 12,9 km/h (3 Bft) 97,87 %
08.01.2023 15:00 10,3 C 10,0 C 4,4 C 83 % 1000,3 hPa 0,0 l/m 0 min 0 min 83 W/m 25,7 km/h (4 Bft) 93,62 %
08.01.2023 15:02 10,3 C 10,0 C 4,4 C 83 % 1000,3 hPa 0,0 l/m 2 min 0 min 108 W/m 19,3 km/h (3 Bft) 97,87 %
08.01.2023 15:04 10,3 C 10,0 C 4,4 C 82 % 1000,2 hPa 0,0 l/m 2 min 0 min 151 W/m 25,7 km/h (4 Bft) 100,00 %
08.01.2023 15:06 10,3 C 10,0 C 4,4 C 81 % 1000,2 hPa 0,0 l/m 2 min 0 min 165 W/m 35,4 km/h (5 Bft) 100,00 %
08.01.2023 15:08 10,4 C 10,0 C 3,9 C 81 % 1000,2 hPa 0,0 l/m 2 min 0 min 158 W/m 32,2 km/h (5 Bft) 100,00 %
08.01.2023 15:10 10,4 C 10,0 C 3,9 C 80 % 1000,1 hPa 0,0 l/m 2 min 0 min 133 W/m 51,5 km/h (7 Bft) 100,00 %
08.01.2023 15:12 10,4 C 10,0 C 3,9 C 80 % 1000,1 hPa 0,0 l/m 2 min 0 min 109 W/m 22,5 km/h (4 Bft) 100,00 %
08.01.2023 15:14 10,4 C 10,0 C 3,9 C 80 % 1000,2 hPa 0,0 l/m 2 min 0 min 94 W/m 35,4 km/h (5 Bft) 97,87 %
08.01.2023 15:16 10,4 C 10,0 C 3,9 C 79 % 1000,1 hPa 0,0 l/m 0 min 0 min 64 W/m 38,6 km/h (5 Bft) 100,00 %
08.01.2023 15:18 10,4 C 10,0 C 3,9 C 79 % 1000,1 hPa 0,0 l/m 0 min 0 min 80 W/m 29,0 km/h (5 Bft) 100,00 %
08.01.2023 15:20 10,4 C 10,0 C 3,9 C 79 % 1000,1 hPa 0,0 l/m 2 min 0 min 102 W/m 32,2 km/h (5 Bft) 97,87 %
08.01.2023 15:22 10,4 C 10,0 C 3,9 C 79 % 1000,0 hPa 0,0 l/m 2 min 0 min 100 W/m 35,4 km/h (5 Bft) 97,87 %
08.01.2023 15:24 10,4 C 9,4 C 3,9 C 80 % 1000,0 hPa 0,0 l/m 0 min 0 min 66 W/m 16,1 km/h (3 Bft) 97,83 %
08.01.2023 15:26 10,4 C 9,4 C 3,9 C 80 % 999,9 hPa 0,0 l/m 0 min 0 min 44 W/m 19,3 km/h (3 Bft) 95,74 %
08.01.2023 15:28 10,4 C 9,4 C 3,9 C 80 % 999,9 hPa 0,0 l/m 0 min 0 min 27 W/m 22,5 km/h (4 Bft) 97,87 %
08.01.2023 15:30 10,3 C 9,4 C 3,9 C 80 % 999,9 hPa 0,0 l/m 0 min 0 min 25 W/m 19,3 km/h (3 Bft) 97,87 %
08.01.2023 15:32 10,3 C 9,4 C 3,9 C 80 % 999,9 hPa 0,0 l/m 0 min 0 min 27 W/m 16,1 km/h (3 Bft) 97,87 %
08.01.2023 15:34 10,3 C 9,4 C 3,9 C 80 % 999,9 hPa 0,0 l/m 0 min 0 min 29 W/m 16,1 km/h (3 Bft) 61,70 %
08.01.2023 15:36 10,2 C 9,4 C 3,9 C 80 % 999,9 hPa 0,0 l/m 0 min 0 min 32 W/m 22,5 km/h (4 Bft) 93,33 %
08.01.2023 15:38 10,2 C 9,4 C 3,9 C 80 % 999,9 hPa 0,0 l/m 0 min 0 min 31 W/m 22,5 km/h (4 Bft) 95,65 %
08.01.2023 15:40 10,2 C 9,4 C 3,9 C 80 % 999,9 hPa 0,0 l/m 0 min 0 min 25 W/m 22,5 km/h (4 Bft) 97,87 %
08.01.2023 15:42 10,1 C 9,4 C 4,4 C 80 % 999,9 hPa 0,0 l/m 0 min 0 min 22 W/m 19,3 km/h (3 Bft) 97,87 %
08.01.2023 15:44 10,1 C 9,4 C 4,4 C 80 % 999,8 hPa 0,0 l/m 0 min 0 min 20 W/m 19,3 km/h (3 Bft) 97,87 %
08.01.2023 15:46 10,1 C 9,4 C 4,4 C 81 % 999,8 hPa 0,0 l/m 0 min 0 min 18 W/m 12,9 km/h (3 Bft) 97,87 %
08.01.2023 15:48 10,1 C 9,4 C 5,0 C 81 % 999,8 hPa 0,0 l/m 0 min 0 min 18 W/m 6,4 km/h (2 Bft) 97,87 %
08.01.2023 15:50 10,1 C 9,4 C 5,0 C 81 % 999,8 hPa 0,0 l/m 0 min 0 min 21 W/m 16,1 km/h (3 Bft) 97,87 %
08.01.2023 15:52 10,1 C 9,4 C 5,0 C 81 % 999,7 hPa 0,0 l/m 0 min 0 min 26 W/m 16,1 km/h (3 Bft) 97,83 %
08.01.2023 15:54 10,0 C 8,9 C 5,0 C 82 % 999,8 hPa 0,0 l/m 0 min 0 min 20 W/m 9,7 km/h (2 Bft) 97,87 %
08.01.2023 15:56 10,0 C 8,9 C 5,0 C 82 % 999,7 hPa 0,0 l/m 0 min 0 min 18 W/m 9,7 km/h (2 Bft) 97,37 %
08.01.2023 15:58 9,9 C 8,9 C 5,0 C 82 % 999,7 hPa 0,0 l/m 0 min 0 min 17 W/m 12,9 km/h (3 Bft) 100,00 %
08.01.2023 16:00 9,9 C 8,9 C 5,0 C 81 % 999,6 hPa 0,0 l/m 0 min 0 min 16 W/m 9,7 km/h (2 Bft) 100,00 %
08.01.2023 16:02 9,9 C 8,9 C 4,4 C 82 % 999,6 hPa 0,0 l/m 0 min 0 min 15 W/m 9,7 km/h (2 Bft) 100,00 %
08.01.2023 16:04 9,8 C 8,9 C 4,4 C 82 % 999,6 hPa 0,0 l/m 0 min 0 min 14 W/m 9,7 km/h (2 Bft) 100,00 %
08.01.2023 16:06 9,8 C 8,9 C 4,4 C 82 % 999,6 hPa 0,0 l/m 0 min 0 min 14 W/m 19,3 km/h (3 Bft) 100,00 %
08.01.2023 16:08 9,8 C 8,3 C 4,4 C 82 % 999,6 hPa 0,0 l/m 0 min 0 min 14 W/m 16,1 km/h (3 Bft) 100,00 %
08.01.2023 16:10 9,7 C 8,3 C 4,4 C 82 % 999,6 hPa 0,0 l/m 0 min 0 min 15 W/m 16,1 km/h (3 Bft) 100,00 %
08.01.2023 16:12 9,7 C 8,3 C 4,4 C 82 % 999,6 hPa 0,0 l/m 0 min 0 min 16 W/m 12,9 km/h (3 Bft) 100,00 %
08.01.2023 16:14 9,6 C 8,3 C 4,4 C 82 % 999,6 hPa 0,0 l/m 0 min 0 min 15 W/m 12,9 km/h (3 Bft) 100,00 %
08.01.2023 16:16 9,6 C 8,3 C 4,4 C 82 % 999,6 hPa 0,0 l/m 0 min 0 min 14 W/m 12,9 km/h (3 Bft) 100,00 %
08.01.2023 16:18 9,6 C 8,3 C 4,4 C 82 % 999,6 hPa 0,0 l/m 0 min 0 min 14 W/m 12,9 km/h (3 Bft) 100,00 %
08.01.2023 16:20 9,5 C 8,3 C 4,4 C 82 % 999,5 hPa 0,0 l/m 0 min 0 min 14 W/m 16,1 km/h (3 Bft) 100,00 %
08.01.2023 16:22 9,4 C 8,3 C 4,4 C 82 % 999,5 hPa 0,0 l/m 0 min 0 min 14 W/m 12,9 km/h (3 Bft) 93,62 %
08.01.2023 16:24 9,4 C 8,3 C 4,4 C 82 % 999,5 hPa 0,0 l/m 0 min 0 min 14 W/m 12,9 km/h (3 Bft) 95,74 %
08.01.2023 16:26 9,4 C 8,3 C 4,4 C 83 % 999,5 hPa 0,0 l/m 0 min 0 min 14 W/m 16,1 km/h (3 Bft) 100,00 %
08.01.2023 16:28 9,3 C 8,3 C 4,4 C 83 % 999,5 hPa 0,0 l/m 0 min 0 min 12 W/m 12,9 km/h (3 Bft) 100,00 %
08.01.2023 16:30 9,3 C 8,3 C 4,4 C 83 % 999,6 hPa 0,0 l/m 0 min 0 min 12 W/m 12,9 km/h (3 Bft) 97,87 %
08.01.2023 16:32 9,3 C 8,3 C 4,4 C 83 % 999,6 hPa 0,0 l/m 0 min 0 min 11 W/m 16,1 km/h (3 Bft) 97,87 %
08.01.2023 16:34 9,3 C 8,3 C 4,4 C 83 % 999,5 hPa 0,0 l/m 0 min 0 min 11 W/m 22,5 km/h (4 Bft) 97,83 %
08.01.2023 16:36 9,2 C 8,3 C 5,0 C 82 % 999,5 hPa 0,0 l/m 0 min 0 min 10 W/m 12,9 km/h (3 Bft) 97,87 %
08.01.2023 16:38 9,2 C 8,3 C 4,4 C 82 % 999,4 hPa 0,0 l/m 0 min 0 min 9 W/m 19,3 km/h (3 Bft) 97,87 %
08.01.2023 16:40 9,2 C 8,3 C 4,4 C 82 % 999,4 hPa 0,0 l/m 0 min 0 min 7 W/m 16,1 km/h (3 Bft) 95,74 %
08.01.2023 16:42 9,2 C 8,3 C 4,4 C 82 % 999,4 hPa 0,0 l/m 0 min 0 min 7 W/m 16,1 km/h (3 Bft) 97,87 %
08.01.2023 16:44 9,2 C 8,3 C 4,4 C 82 % 999,3 hPa 0,0 l/m 0 min 0 min 5 W/m 12,9 km/h (3 Bft) 97,87 %
08.01.2023 16:46 9,1 C 8,3 C 4,4 C 82 % 999,3 hPa 0,0 l/m 0 min 0 min 5 W/m 16,1 km/h (3 Bft) 93,62 %
08.01.2023 16:48 9,1 C 8,3 C 4,4 C 82 % 999,4 hPa 0,0 l/m 0 min 0 min 0 W/m 12,9 km/h (3 Bft) 95,65 %
08.01.2023 16:50 9,1 C 7,8 C 4,4 C 82 % 999,4 hPa 0,0 l/m 0 min 0 min 0 W/m 12,9 km/h (3 Bft) 95,74 %
08.01.2023 16:52 9,1 C 7,8 C 4,4 C 82 % 999,4 hPa 0,0 l/m 0 min 0 min 0 W/m 6,4 km/h (2 Bft) 95,74 %
08.01.2023 16:54 9,1 C 7,8 C 4,4 C 82 % 999,4 hPa 0,0 l/m 0 min 0 min 0 W/m 6,4 km/h (2 Bft) 93,62 %
08.01.2023 16:56 9,1 C 7,8 C 4,4 C 82 % 999,4 hPa 0,0 l/m 0 min 0 min 0 W/m 6,4 km/h (2 Bft) 95,74 %
08.01.2023 16:58 9,0 C 7,8 C 4,4 C 82 % 999,4 hPa 0,0 l/m 0 min 0 min 0 W/m 12,9 km/h (3 Bft) 95,74 %
08.01.2023 17:00 9,0 C 7,8 C 4,4 C 83 % 999,5 hPa 0,0 l/m 0 min 0 min 0 W/m 3,2 km/h (1 Bft) 93,62 %
08.01.2023 17:02 8,9 C 7,8 C 4,4 C 83 % 999,5 hPa 0,0 l/m 0 min 0 min 0 W/m 9,7 km/h (2 Bft) 93,48 %
08.01.2023 17:04 8,9 C 7,8 C 4,4 C 83 % 999,4 hPa 0,0 l/m 0 min 0 min 0 W/m 6,4 km/h (2 Bft) 95,74 %
08.01.2023 17:06 8,9 C 7,8 C 4,4 C 83 % 999,4 hPa 0,0 l/m 0 min 0 min 0 W/m 6,4 km/h (2 Bft) 97,87 %
08.01.2023 17:08 8,9 C 7,8 C 4,4 C 83 % 999,3 hPa 0,0 l/m 0 min 0 min 0 W/m 3,2 km/h (1 Bft) 93,62 %
08.01.2023 17:10 8,9 C 7,8 C 4,4 C 83 % 999,3 hPa 0,0 l/m 0 min 0 min 0 W/m 6,4 km/h (2 Bft) 95,74 %
08.01.2023 17:12 8,8 C 7,8 C 4,4 C 83 % 999,4 hPa 0,0 l/m 0 min 0 min 0 W/m 9,7 km/h (2 Bft) 93,62 %
08.01.2023 17:14 8,8 C 7,8 C 4,4 C 83 % 999,3 hPa 0,0 l/m 0 min 0 min 0 W/m 16,1 km/h (3 Bft) 89,36 %
08.01.2023 17:16 8,8 C 7,8 C 4,4 C 83 % 999,3 hPa 0,0 l/m 0 min 0 min 0 W/m 6,4 km/h (2 Bft) 61,70 %
08.01.2023 17:18 8,8 C 7,8 C 4,4 C 83 % 999,3 hPa 0,0 l/m 0 min 0 min 0 W/m 12,9 km/h (3 Bft) 95,65 %
08.01.2023 17:20 8,8 C 7,8 C 4,4 C 83 % 999,3 hPa 0,0 l/m 0 min 0 min 0 W/m 12,9 km/h (3 Bft) 97,87 %
08.01.2023 17:22 8,8 C 7,8 C 4,4 C 83 % 999,4 hPa 0,0 l/m 0 min 0 min 0 W/m 19,3 km/h (3 Bft) 97,87 %
08.01.2023 17:24 8,8 C 7,8 C 4,4 C 83 % 999,4 hPa 0,0 l/m 0 min 0 min 0 W/m 16,1 km/h (3 Bft) 93,62 %
08.01.2023 17:26 8,8 C 7,8 C 4,4 C 83 % 999,3 hPa 0,0 l/m 0 min 0 min 0 W/m 12,9 km/h (3 Bft) 95,74 %
08.01.2023 17:28 8,8 C 7,8 C 4,4 C 83 % 999,3 hPa 0,0 l/m 0 min 0 min 0 W/m 25,7 km/h (4 Bft) 93,62 %
08.01.2023 17:30 8,8 C 7,8 C 4,4 C 83 % 999,2 hPa 0,0 l/m 0 min 0 min 0 W/m 16,1 km/h (3 Bft) 95,65 %
08.01.2023 17:32 8,8 C 7,8 C 4,4 C 83 % 999,2 hPa 0,0 l/m 0 min 0 min 0 W/m 16,1 km/h (3 Bft) 95,74 %
08.01.2023 17:34 8,8 C 7,8 C 4,4 C 83 % 999,2 hPa 0,0 l/m 0 min 0 min 0 W/m 16,1 km/h (3 Bft) 93,62 %
08.01.2023 17:36 8,8 C 7,8 C 4,4 C 83 % 999,3 hPa 0,0 l/m 0 min 0 min 0 W/m 22,5 km/h (4 Bft) 97,87 %
08.01.2023 17:38 8,8 C 7,8 C 4,4 C 83 % 999,3 hPa 0,0 l/m 0 min 0 min 0 W/m 16,1 km/h (3 Bft) 95,74 %
08.01.2023 17:40 8,8 C 7,8 C 4,4 C 83 % 999,2 hPa 0,0 l/m 0 min 0 min 0 W/m 16,1 km/h (3 Bft) 95,74 %
08.01.2023 17:42 8,8 C 7,8 C 4,4 C 82 % 999,2 hPa 0,0 l/m 0 min 0 min 0 W/m 19,3 km/h (3 Bft) 97,87 %
08.01.2023 17:44 8,8 C 7,8 C 4,4 C 82 % 999,2 hPa 0,0 l/m 0 min 0 min 0 W/m 19,3 km/h (3 Bft) 97,83 %
08.01.2023 17:46 8,8 C 7,8 C 4,4 C 82 % 999,2 hPa 0,0 l/m 0 min 0 min 0 W/m 16,1 km/h (3 Bft) 97,87 %
08.01.2023 17:48 8,7 C 7,8 C 4,4 C 82 % 999,2 hPa 0,0 l/m 0 min 0 min 0 W/m 12,9 km/h (3 Bft) 97,87 %
08.01.2023 17:50 8,7 C 7,8 C 4,4 C 82 % 999,1 hPa 0,0 l/m 0 min 0 min 0 W/m 19,3 km/h (3 Bft) 93,62 %
08.01.2023 17:52 8,7 C 7,8 C 4,4 C 82 % 999,1 hPa 0,0 l/m 0 min 0 min 0 W/m 12,9 km/h (3 Bft) 97,87 %
08.01.2023 17:54 8,7 C 7,8 C 4,4 C 82 % 999,1 hPa 0,0 l/m 0 min 0 min 0 W/m 12,9 km/h (3 Bft) 97,87 %
08.01.2023 17:56 8,7 C 7,8 C 4,4 C 82 % 999,1 hPa 0,0 l/m 0 min 0 min 0 W/m 9,7 km/h (2 Bft) 97,87 %
08.01.2023 17:58 8,6 C 7,2 C 4,4 C 82 % 999,1 hPa 0,0 l/m 0 min 0 min 0 W/m 6,4 km/h (2 Bft) 100,00 %
08.01.2023 18:00 8,6 C 7,2 C 4,4 C 82 % 999,0 hPa 0,0 l/m 0 min 0 min 0 W/m 9,7 km/h (2 Bft) 97,87 %
08.01.2023 18:02 8,6 C 7,2 C 3,9 C 82 % 999,1 hPa 0,0 l/m 0 min 0 min 0 W/m 3,2 km/h (1 Bft) 100,00 %
08.01.2023 18:04 8,6 C 7,2 C 3,9 C 82 % 999,0 hPa 0,0 l/m 0 min 0 min 0 W/m 6,4 km/h (2 Bft) 100,00 %
08.01.2023 18:05 8,5 C 7,2 C 3,9 C 83 % 999,0 hPa 0,0 l/m 0 min 0 min 0 W/m 9,7 km/h (2 Bft) 100,00 %
08.01.2023 18:10 8,4 C 7,2 C 3,9 C 83 % 998,9 hPa 0,0 l/m 0 min 0 min 0 W/m 12,9 km/h (3 Bft) 100,00 %
08.01.2023 18:15 8,3 C 7,2 C 3,9 C 83 % 998,8 hPa 0,0 l/m 0 min 0 min 0 W/m 12,9 km/h (3 Bft) 100,00 %
08.01.2023 18:20 8,3 C 6,7 C 3,9 C 84 % 998,8 hPa 0,0 l/m 0 min 0 min 0 W/m 9,7 km/h (2 Bft) 100,00 %
08.01.2023 18:25 8,2 C 6,7 C 3,9 C 84 % 998,9 hPa 0,0 l/m 0 min 0 min 0 W/m 9,7 km/h (2 Bft) 100,00 %
08.01.2023 18:30 8,1 C 6,7 C 3,3 C 84 % 998,8 hPa 0,0 l/m 0 min 0 min 0 W/m 9,7 km/h (2 Bft) 100,00 %
08.01.2023 18:35 7,9 C 6,7 C 3,3 C 84 % 998,7 hPa 0,0 l/m 0 min 0 min 0 W/m 9,7 km/h (2 Bft) 100,00 %
08.01.2023 18:42 7,9 C 6,7 C 3,3 C 84 % 998,6 hPa 0,0 l/m 0 min 0 min 0 W/m 12,9 km/h (3 Bft) 95,45 %
08.01.2023 18:44 7,8 C 6,7 C 3,3 C 84 % 998,4 hPa 0,0 l/m 0 min 0 min 0 W/m 6,4 km/h (2 Bft) 100,00 %
08.01.2023 18:49 7,8 C 7,2 C 3,9 C 85 % 998,5 hPa 0,0 l/m 0 min 0 min 0 W/m 16,1 km/h (3 Bft) 97,67 %
08.01.2023 18:50 7,8 C 7,2 C 3,9 C 85 % 998,5 hPa 0,0 l/m 0 min 0 min 0 W/m 12,9 km/h (3 Bft) 100,00 %
08.01.2023 18:52 7,8 C 7,2 C 3,9 C 85 % 998,5 hPa 0,0 l/m 0 min 0 min 0 W/m 12,9 km/h (3 Bft) 97,87 %
08.01.2023 18:54 7,8 C 7,2 C 3,9 C 85 % 998,4 hPa 0,0 l/m 0 min 0 min 0 W/m 9,7 km/h (2 Bft) 100,00 %
08.01.2023 18:56 7,8 C 7,2 C 3,9 C 85 % 998,4 hPa 0,0 l/m 0 min 0 min 0 W/m 12,9 km/h (3 Bft) 97,87 %
08.01.2023 18:58 7,8 C 7,2 C 3,9 C 85 % 998,4 hPa 0,0 l/m 0 min 0 min 0 W/m 16,1 km/h (3 Bft) 97,87 %
08.01.2023 19:00 7,8 C 7,2 C 3,9 C 85 % 998,4 hPa 0,0 l/m 0 min 0 min 0 W/m 16,1 km/h (3 Bft) 97,87 %
08.01.2023 19:02 7,8 C 7,2 C 3,9 C 85 % 998,4 hPa 0,0 l/m 0 min 0 min 0 W/m 16,1 km/h (3 Bft) 95,65 %
08.01.2023 19:04 7,8 C 6,7 C 3,9 C 85 % 998,3 hPa 0,0 l/m 0 min 0 min 0 W/m 9,7 km/h (2 Bft) 97,92 %
08.01.2023 19:06 7,8 C 6,7 C 3,9 C 85 % 998,4 hPa 0,0 l/m 0 min 0 min 0 W/m 6,4 km/h (2 Bft) 97,87 %
08.01.2023 19:08 7,8 C 6,7 C 3,9 C 85 % 998,3 hPa 0,0 l/m 0 min 0 min 0 W/m 12,9 km/h (3 Bft) 97,87 %
08.01.2023 19:10 7,8 C 6,7 C 3,9 C 85 % 998,3 hPa 0,0 l/m 0 min 0 min 0 W/m 12,9 km/h (3 Bft) 93,62 %
08.01.2023 19:12 7,8 C 6,7 C 3,3 C 85 % 998,3 hPa 0,0 l/m 0 min 0 min 0 W/m 12,9 km/h (3 Bft) 95,74 %
08.01.2023 19:14 7,7 C 6,7 C 3,3 C 85 % 998,3 hPa 0,0 l/m 0 min 0 min 0 W/m 16,1 km/h (3 Bft) 97,87 %
08.01.2023 19:16 7,7 C 6,7 C 3,3 C 85 % 998,3 hPa 0,0 l/m 0 min 0 min 0 W/m 16,1 km/h (3 Bft) 97,83 %
08.01.2023 19:18 7,7 C 6,7 C 3,3 C 85 % 998,2 hPa 0,0 l/m 0 min 0 min 0 W/m 12,9 km/h (3 Bft) 97,22 %
08.01.2023 19:20 7,7 C 6,7 C 3,3 C 86 % 998,2 hPa 0,0 l/m 0 min 0 min 0 W/m 12,9 km/h (3 Bft) 91,30 %
08.01.2023 19:22 7,6 C 6,7 C 3,3 C 86 % 998,2 hPa 0,0 l/m 0 min 0 min 0 W/m 16,1 km/h (3 Bft) 96,61 %
08.01.2023 19:24 7,6 C 6,7 C 3,3 C 86 % 998,2 hPa 0,0 l/m 0 min 0 min 0 W/m 12,9 km/h (3 Bft) 94,29 %
08.01.2023 19:26 7,6 C 6,7 C 3,3 C 86 % 998,2 hPa 0,0 l/m 0 min 0 min 0 W/m 16,1 km/h (3 Bft) 96,61 %
08.01.2023 19:28 7,6 C 6,7 C 3,3 C 86 % 998,1 hPa 0,0 l/m 0 min 0 min 0 W/m 19,3 km/h (3 Bft) 94,29 %
08.01.2023 19:30 7,6 C 6,7 C 3,3 C 86 % 998,1 hPa 0,0 l/m 0 min 0 min 0 W/m 16,1 km/h (3 Bft) 95,74 %
08.01.2023 19:32 7,6 C 6,7 C 3,3 C 86 % 998,1 hPa 0,0 l/m 0 min 0 min 0 W/m 16,1 km/h (3 Bft) 95,74 %
08.01.2023 19:34 7,6 C 6,7 C 3,3 C 86 % 998,1 hPa 0,0 l/m 0 min 0 min 0 W/m 12,9 km/h (3 Bft) 95,65 %
08.01.2023 19:36 7,6 C 6,7 C 3,3 C 86 % 998,1 hPa 0,0 l/m 0 min 0 min 0 W/m 12,9 km/h (3 Bft) 93,62 %
08.01.2023 19:38 7,5 C 6,7 C 3,3 C 86 % 998,0 hPa 0,0 l/m 0 min 0 min 0 W/m 9,7 km/h (2 Bft) 98,00 %
08.01.2023 19:40 7,5 C 6,7 C 3,3 C 86 % 998,0 hPa 0,0 l/m 0 min 0 min 0 W/m 12,9 km/h (3 Bft) 97,87 %
08.01.2023 19:42 7,5 C 6,7 C 3,3 C 87 % 998,0 hPa 0,0 l/m 0 min 0 min 0 W/m 22,5 km/h (4 Bft) 97,87 %
08.01.2023 19:44 7,5 C 6,7 C 3,3 C 87 % 997,9 hPa 0,0 l/m 0 min 0 min 0 W/m 12,9 km/h (3 Bft) 95,74 %
08.01.2023 19:46 7,5 C 6,7 C 3,3 C 87 % 997,9 hPa 0,0 l/m 0 min 0 min 0 W/m 12,9 km/h (3 Bft) 97,83 %
08.01.2023 19:48 7,4 C 6,7 C 3,3 C 87 % 997,9 hPa 0,0 l/m 0 min 0 min 0 W/m 12,9 km/h (3 Bft) 93,62 %
08.01.2023 19:50 7,4 C 6,7 C 3,3 C 87 % 997,9 hPa 0,0 l/m 0 min 0 min 0 W/m 9,7 km/h (2 Bft) 97,87 %
08.01.2023 19:52 7,4 C 6,7 C 3,3 C 87 % 997,8 hPa 0,0 l/m 0 min 0 min 0 W/m 12,9 km/h (3 Bft) 97,87 %
08.01.2023 19:54 7,4 C 6,7 C 3,3 C 87 % 997,8 hPa 0,0 l/m 0 min 0 min 0 W/m 19,3 km/h (3 Bft) 93,62 %
08.01.2023 19:56 7,4 C 6,7 C 3,3 C 87 % 997,8 hPa 0,0 l/m 0 min 0 min 0 W/m 12,9 km/h (3 Bft) 97,87 %
08.01.2023 19:58 7,4 C 6,7 C 3,3 C 87 % 997,8 hPa 0,0 l/m 0 min 0 min 0 W/m 16,1 km/h (3 Bft) 95,35 %
08.01.2023 20:00 7,4 C 6,7 C 3,3 C 87 % 997,8 hPa 0,0 l/m 0 min 0 min 0 W/m 9,7 km/h (2 Bft) 97,92 %
08.01.2023 20:02 7,4 C 6,7 C 3,3 C 87 % 997,7 hPa 0,0 l/m 0 min 0 min 0 W/m 12,9 km/h (3 Bft) 97,83 %
08.01.2023 20:04 7,3 C 6,7 C 3,3 C 87 % 997,7 hPa 0,0 l/m 0 min 0 min 0 W/m 16,1 km/h (3 Bft) 98,15 %
08.01.2023 20:06 7,3 C 6,7 C 3,3 C 87 % 997,6 hPa 0,0 l/m 0 min 0 min 0 W/m 12,9 km/h (3 Bft) 98,28 %
08.01.2023 20:08 7,3 C 6,1 C 3,3 C 87 % 997,6 hPa 0,0 l/m 0 min 0 min 0 W/m 12,9 km/h (3 Bft) 97,14 %
08.01.2023 20:10 7,3 C 6,1 C 3,3 C 87 % 997,7 hPa 0,0 l/m 0 min 0 min 0 W/m 16,1 km/h (3 Bft) 97,87 %
08.01.2023 20:12 7,3 C 6,7 C 3,3 C 88 % 997,6 hPa 0,0 l/m 0 min 0 min 0 W/m 16,1 km/h (3 Bft) 96,00 %
08.01.2023 20:14 7,3 C 6,7 C 3,3 C 88 % 997,5 hPa 0,0 l/m 0 min 0 min 0 W/m 16,1 km/h (3 Bft) 97,96 %
08.01.2023 20:16 7,3 C 6,7 C 3,3 C 88 % 997,5 hPa 0,0 l/m 0 min 0 min 0 W/m 12,9 km/h (3 Bft) 97,87 %
08.01.2023 20:18 7,3 C 6,7 C 3,3 C 88 % 997,5 hPa 0,0 l/m 0 min 0 min 0 W/m 12,9 km/h (3 Bft) 97,14 %
08.01.2023 20:20 7,3 C 6,7 C 3,3 C 88 % 997,4 hPa 0,0 l/m 0 min 0 min 0 W/m 6,4 km/h (2 Bft) 98,15 %
08.01.2023 20:22 7,3 C 6,7 C 3,3 C 88 % 997,4 hPa 0,0 l/m 0 min 0 min 0 W/m 16,1 km/h (3 Bft) 97,96 %
08.01.2023 20:24 7,3 C 6,7 C 3,3 C 88 % 997,4 hPa 0,0 l/m 0 min 0 min 0 W/m 16,1 km/h (3 Bft) 98,00 %
08.01.2023 20:26 7,3 C 6,7 C 3,3 C 88 % 997,4 hPa 0,0 l/m 0 min 0 min 0 W/m 12,9 km/h (3 Bft) 97,14 %
08.01.2023 20:28 7,3 C 6,7 C 3,3 C 88 % 997,3 hPa 0,0 l/m 0 min 0 min 0 W/m 16,1 km/h (3 Bft) 98,11 %
08.01.2023 20:30 7,3 C 6,7 C 3,3 C 88 % 997,3 hPa 0,0 l/m 0 min 0 min 0 W/m 12,9 km/h (3 Bft) 95,74 %
08.01.2023 20:32 7,3 C 6,7 C 3,3 C 88 % 997,1 hPa 0,0 l/m 0 min 0 min 0 W/m 16,1 km/h (3 Bft) 97,87 %
08.01.2023 20:34 7,3 C 6,7 C 3,3 C 88 % 997,1 hPa 0,0 l/m 0 min 0 min 0 W/m 12,9 km/h (3 Bft) 95,74 %
08.01.2023 20:36 7,3 C 6,1 C 3,3 C 88 % 997,1 hPa 0,0 l/m 0 min 0 min 0 W/m 12,9 km/h (3 Bft) 97,87 %
08.01.2023 20:38 7,3 C 6,7 C 3,3 C 88 % 997,0 hPa 0,0 l/m 0 min 0 min 0 W/m 22,5 km/h (4 Bft) 97,83 %
08.01.2023 20:40 7,3 C 6,7 C 3,3 C 88 % 997,0 hPa 0,0 l/m 0 min 0 min 0 W/m 16,1 km/h (3 Bft) 97,87 %
08.01.2023 20:42 7,3 C 6,7 C 3,3 C 88 % 996,9 hPa 0,0 l/m 0 min 0 min 0 W/m 22,5 km/h (4 Bft) 100,00 %
08.01.2023 20:44 7,3 C 6,7 C 3,3 C 88 % 996,9 hPa 0,0 l/m 0 min 0 min 0 W/m 22,5 km/h (4 Bft) 100,00 %
08.01.2023 20:46 7,3 C 6,7 C 3,3 C 89 % 997,0 hPa 0,0 l/m 0 min 0 min 0 W/m 16,1 km/h (3 Bft) 100,00 %
08.01.2023 20:48 7,3 C 6,7 C 3,3 C 89 % 997,0 hPa 0,0 l/m 0 min 0 min 0 W/m 16,1 km/h (3 Bft) 95,74 %
08.01.2023 20:50 7,3 C 6,7 C 3,3 C 89 % 997,0 hPa 0,0 l/m 0 min 0 min 0 W/m 12,9 km/h (3 Bft) 97,87 %
08.01.2023 20:52 7,3 C 6,7 C 3,3 C 89 % 997,1 hPa 0,0 l/m 0 min 0 min 0 W/m 12,9 km/h (3 Bft) 97,83 %
08.01.2023 20:54 7,3 C 6,7 C 3,3 C 89 % 997,0 hPa 0,0 l/m 0 min 0 min 0 W/m 16,1 km/h (3 Bft) 100,00 %
08.01.2023 20:56 7,3 C 6,7 C 3,3 C 89 % 997,0 hPa 0,0 l/m 0 min 0 min 0 W/m 19,3 km/h (3 Bft) 100,00 %
08.01.2023 20:58 7,3 C 6,7 C 3,3 C 89 % 996,9 hPa 0,0 l/m 0 min 0 min 0 W/m 16,1 km/h (3 Bft) 97,87 %
08.01.2023 21:00 7,3 C 6,7 C 3,3 C 89 % 996,9 hPa 0,0 l/m 0 min 0 min 0 W/m 16,1 km/h (3 Bft) 100,00 %
08.01.2023 21:02 7,3 C 6,7 C 3,3 C 89 % 996,9 hPa 0,0 l/m 0 min 0 min 0 W/m 16,1 km/h (3 Bft) 97,87 %
08.01.2023 21:04 7,3 C 6,7 C 3,3 C 89 % 996,8 hPa 0,0 l/m 0 min 0 min 0 W/m 16,1 km/h (3 Bft) 100,00 %
08.01.2023 21:06 7,4 C 6,7 C 3,9 C 89 % 996,7 hPa 0,0 l/m 0 min 0 min 0 W/m 12,9 km/h (3 Bft) 97,83 %
08.01.2023 21:08 7,4 C 6,7 C 3,9 C 89 % 996,7 hPa 0,0 l/m 0 min 0 min 0 W/m 19,3 km/h (3 Bft) 100,00 %
08.01.2023 21:10 7,4 C 6,7 C 3,9 C 89 % 996,6 hPa 0,0 l/m 0 min 0 min 0 W/m 19,3 km/h (3 Bft) 95,74 %
08.01.2023 21:12 7,4 C 6,7 C 3,9 C 89 % 996,6 hPa 0,0 l/m 0 min 0 min 0 W/m 16,1 km/h (3 Bft) 100,00 %
08.01.2023 21:14 7,5 C 6,7 C 3,9 C 89 % 996,6 hPa 0,0 l/m 0 min 0 min 0 W/m 22,5 km/h (4 Bft) 93,62 %
08.01.2023 21:16 7,5 C 6,7 C 3,9 C 89 % 996,5 hPa 0,0 l/m 0 min 0 min 0 W/m 16,1 km/h (3 Bft) 48,78 %
08.01.2023 21:18 7,6 C 7,2 C 3,9 C 89 % 996,6 hPa 0,0 l/m 0 min 0 min 0 W/m 19,3 km/h (3 Bft) 97,87 %
08.01.2023 21:20 7,6 C 7,2 C 3,9 C 89 % 996,5 hPa 0,0 l/m 0 min 0 min 0 W/m 22,5 km/h (4 Bft) 95,65 %
08.01.2023 21:22 7,6 C 7,2 C 3,9 C 89 % 996,5 hPa 0,0 l/m 0 min 0 min 0 W/m 12,9 km/h (3 Bft) 95,74 %
08.01.2023 21:24 7,6 C 7,2 C 3,9 C 89 % 996,5 hPa 0,0 l/m 0 min 0 min 0 W/m 22,5 km/h (4 Bft) 95,74 %
08.01.2023 21:26 7,6 C 7,2 C 3,9 C 89 % 996,6 hPa 0,0 l/m 0 min 0 min 0 W/m 29,0 km/h (5 Bft) 92,00 %
08.01.2023 21:28 7,7 C 7,2 C 3,9 C 89 % 996,5 hPa 0,0 l/m 0 min 0 min 0 W/m 19,3 km/h (3 Bft) 100,00 %
08.01.2023 21:30 7,7 C 7,2 C 3,9 C 89 % 996,5 hPa 0,0 l/m 0 min 0 min 0 W/m 19,3 km/h (3 Bft) 94,44 %
08.01.2023 21:32 7,7 C 7,2 C 3,9 C 89 % 996,4 hPa 0,0 l/m 0 min 0 min 0 W/m 16,1 km/h (3 Bft) 95,92 %
08.01.2023 21:34 7,7 C 7,2 C 3,9 C 89 % 996,4 hPa 0,0 l/m 0 min 0 min 0 W/m 16,1 km/h (3 Bft) 93,62 %
08.01.2023 21:36 7,8 C 7,2 C 3,9 C 89 % 996,4 hPa 0,0 l/m 0 min 0 min 0 W/m 25,7 km/h (4 Bft) 95,74 %
08.01.2023 21:38 7,8 C 7,2 C 3,9 C 89 % 996,4 hPa 0,0 l/m 0 min 0 min 0 W/m 16,1 km/h (3 Bft) 95,74 %
08.01.2023 21:40 7,8 C 7,2 C 3,9 C 89 % 996,4 hPa 0,0 l/m 0 min 0 min 0 W/m 22,5 km/h (4 Bft) 93,62 %
08.01.2023 21:42 7,8 C 7,2 C 4,4 C 89 % 996,3 hPa 0,0 l/m 0 min 0 min 0 W/m 22,5 km/h (4 Bft) 97,87 %
08.01.2023 21:44 7,8 C 7,2 C 4,4 C 89 % 996,4 hPa 0,0 l/m 0 min 0 min 0 W/m 12,9 km/h (3 Bft) 97,87 %
08.01.2023 21:46 7,8 C 7,2 C 4,4 C 89 % 996,3 hPa 0,0 l/m 0 min 0 min 0 W/m 19,3 km/h (3 Bft) 97,87 %
08.01.2023 21:48 7,9 C 7,2 C 4,4 C 89 % 996,3 hPa 0,0 l/m 0 min 0 min 0 W/m 16,1 km/h (3 Bft) 97,83 %
08.01.2023 21:50 7,9 C 7,2 C 4,4 C 89 % 996,2 hPa 0,0 l/m 0 min 0 min 0 W/m 19,3 km/h (3 Bft) 95,74 %
08.01.2023 21:52 7,9 C 7,2 C 4,4 C 89 % 996,2 hPa 0,0 l/m 0 min 0 min 0 W/m 16,1 km/h (3 Bft) 95,74 %
08.01.2023 21:54 7,9 C 7,2 C 3,9 C 89 % 996,3 hPa 0,0 l/m 0 min 0 min 0 W/m 16,1 km/h (3 Bft) 97,87 %
08.01.2023 21:56 7,9 C 7,2 C 3,9 C 89 % 996,2 hPa 0,0 l/m 0 min 0 min 0 W/m 16,1 km/h (3 Bft) 91,49 %
08.01.2023 21:58 7,9 C 7,2 C 3,9 C 89 % 996,2 hPa 0,0 l/m 0 min 0 min 0 W/m 16,1 km/h (3 Bft) 97,87 %
08.01.2023 22:00 7,9 C 7,2 C 3,9 C 89 % 996,1 hPa 0,0 l/m 0 min 0 min 0 W/m 6,4 km/h (2 Bft) 97,87 %
08.01.2023 22:02 7,9 C 7,2 C 3,9 C 89 % 996,1 hPa 0,0 l/m 0 min 0 min 0 W/m 16,1 km/h (3 Bft) 97,83 %
08.01.2023 22:04 7,9 C 7,2 C 3,9 C 89 % 996,1 hPa 0,0 l/m 0 min 0 min 0 W/m 12,9 km/h (3 Bft) 97,87 %
08.01.2023 22:06 7,9 C 7,2 C 3,9 C 89 % 996,0 hPa 0,0 l/m 0 min 0 min 0 W/m 16,1 km/h (3 Bft) 100,00 %
08.01.2023 22:08 7,9 C 7,2 C 3,9 C 89 % 996,0 hPa 0,0 l/m 0 min 0 min 0 W/m 16,1 km/h (3 Bft) 100,00 %
08.01.2023 22:10 7,9 C 7,2 C 3,9 C 89 % 996,0 hPa 0,0 l/m 0 min 0 min 0 W/m 16,1 km/h (3 Bft) 100,00 %
08.01.2023 22:12 7,9 C 7,2 C 3,9 C 89 % 996,0 hPa 0,0 l/m 0 min 0 min 0 W/m 12,9 km/h (3 Bft) 100,00 %
08.01.2023 22:14 7,9 C 7,2 C 3,9 C 89 % 995,9 hPa 0,0 l/m 0 min 0 min 0 W/m 12,9 km/h (3 Bft) 100,00 %
08.01.2023 22:16 7,9 C 7,2 C 3,9 C 89 % 996,0 hPa 0,0 l/m 0 min 0 min 0 W/m 9,7 km/h (2 Bft) 97,87 %
08.01.2023 22:18 7,9 C 7,2 C 3,9 C 89 % 995,9 hPa 0,0 l/m 0 min 0 min 0 W/m 16,1 km/h (3 Bft) 100,00 %
08.01.2023 22:20 7,9 C 7,2 C 3,9 C 89 % 996,0 hPa 0,0 l/m 0 min 0 min 0 W/m 16,1 km/h (3 Bft) 100,00 %
08.01.2023 22:22 7,9 C 7,2 C 4,4 C 89 % 995,9 hPa 0,0 l/m 0 min 0 min 0 W/m 12,9 km/h (3 Bft) 100,00 %
08.01.2023 22:24 7,9 C 7,2 C 4,4 C 89 % 995,9 hPa 0,0 l/m 0 min 0 min 0 W/m 16,1 km/h (3 Bft) 100,00 %
08.01.2023 22:26 7,9 C 7,2 C 4,4 C 89 % 995,8 hPa 0,0 l/m 0 min 0 min 0 W/m 16,1 km/h (3 Bft) 100,00 %
08.01.2023 22:28 7,9 C 7,2 C 3,9 C 89 % 995,7 hPa 0,0 l/m 0 min 0 min 0 W/m 16,1 km/h (3 Bft) 97,87 %
08.01.2023 22:30 8,0 C 7,2 C 3,9 C 89 % 995,8 hPa 0,0 l/m 0 min 0 min 0 W/m 16,1 km/h (3 Bft) 97,83 %
08.01.2023 22:32 8,0 C 7,2 C 3,9 C 89 % 995,7 hPa 0,0 l/m 0 min 0 min 0 W/m 16,1 km/h (3 Bft) 100,00 %
08.01.2023 22:34 8,0 C 7,2 C 3,9 C 89 % 995,7 hPa 0,0 l/m 0 min 0 min 0 W/m 16,1 km/h (3 Bft) 100,00 %
08.01.2023 22:36 8,0 C 7,2 C 4,4 C 89 % 995,7 hPa 0,0 l/m 0 min 0 min 0 W/m 9,7 km/h (2 Bft) 97,87 %
08.01.2023 22:38 8,0 C 7,2 C 4,4 C 89 % 995,7 hPa 0,0 l/m 0 min 0 min 0 W/m 19,3 km/h (3 Bft) 100,00 %
08.01.2023 22:40 8,1 C 7,2 C 4,4 C 89 % 995,6 hPa 0,0 l/m 0 min 0 min 0 W/m 16,1 km/h (3 Bft) 100,00 %
08.01.2023 22:42 8,1 C 7,2 C 4,4 C 89 % 995,6 hPa 0,0 l/m 0 min 0 min 0 W/m 16,1 km/h (3 Bft) 100,00 %
08.01.2023 22:44 8,1 C 7,2 C 4,4 C 89 % 995,6 hPa 0,0 l/m 0 min 0 min 0 W/m 22,5 km/h (4 Bft) 100,00 %
08.01.2023 22:46 8,1 C 7,2 C 4,4 C 89 % 995,5 hPa 0,0 l/m 0 min 0 min 0 W/m 12,9 km/h (3 Bft) 95,74 %
08.01.2023 22:48 8,1 C 7,2 C 4,4 C 89 % 995,4 hPa 0,0 l/m 0 min 0 min 0 W/m 19,3 km/h (3 Bft) 95,74 %
08.01.2023 22:50 8,1 C 7,2 C 4,4 C 89 % 995,4 hPa 0,0 l/m 0 min 0 min 0 W/m 16,1 km/h (3 Bft) 95,74 %
08.01.2023 22:52 8,1 C 7,8 C 4,4 C 89 % 995,3 hPa 0,0 l/m 0 min 0 min 0 W/m 19,3 km/h (3 Bft) 97,87 %
08.01.2023 22:54 8,2 C 7,8 C 4,4 C 89 % 995,4 hPa 0,0 l/m 0 min 2 min 0 W/m 22,5 km/h (4 Bft) 97,87 %
08.01.2023 22:56 8,2 C 7,8 C 3,9 C 89 % 995,2 hPa 0,0 l/m 0 min 2 min 0 W/m 22,5 km/h (4 Bft) 97,87 %
08.01.2023 22:58 8,2 C 7,8 C 3,9 C 89 % 995,2 hPa 0,0 l/m 0 min 2 min 0 W/m 22,5 km/h (4 Bft) 95,74 %
08.01.2023 23:00 8,2 C 7,2 C 3,3 C 89 % 995,1 hPa 0,0 l/m 0 min 2 min 0 W/m 25,7 km/h (4 Bft) 97,83 %
08.01.2023 23:02 8,2 C 7,2 C 3,3 C 89 % 995,1 hPa 0,0 l/m 0 min 2 min 0 W/m 16,1 km/h (3 Bft) 97,87 %
08.01.2023 23:04 8,2 C 7,2 C 3,3 C 89 % 995,1 hPa 0,0 l/m 0 min 2 min 0 W/m 16,1 km/h (3 Bft) 95,74 %
08.01.2023 23:06 8,2 C 7,2 C 3,3 C 89 % 995,1 hPa 0,0 l/m 0 min 2 min 0 W/m 19,3 km/h (3 Bft) 95,74 %
08.01.2023 23:08 8,2 C 7,2 C 3,3 C 90 % 995,0 hPa 0,0 l/m 0 min 2 min 0 W/m 12,9 km/h (3 Bft) 93,62 %
08.01.2023 23:10 8,2 C 7,2 C 3,3 C 90 % 995,0 hPa 0,0 l/m 0 min 2 min 0 W/m 12,9 km/h (3 Bft) 94,74 %
08.01.2023 23:12 8,2 C 7,2 C 3,3 C 90 % 995,0 hPa 0,2 l/m 0 min 2 min 0 W/m 19,3 km/h (3 Bft) 95,74 %
08.01.2023 23:14 8,2 C 7,2 C 3,3 C 90 % 994,9 hPa 0,0 l/m 0 min 2 min 0 W/m 16,1 km/h (3 Bft) 95,74 %
08.01.2023 23:16 8,2 C 7,2 C 3,3 C 90 % 995,0 hPa 0,0 l/m 0 min 2 min 0 W/m 12,9 km/h (3 Bft) 95,65 %
08.01.2023 23:18 8,2 C 7,2 C 3,3 C 90 % 994,9 hPa 0,2 l/m 0 min 2 min 0 W/m 9,7 km/h (2 Bft) 93,62 %
08.01.2023 23:20 8,2 C 7,2 C 3,3 C 91 % 994,8 hPa 0,0 l/m 0 min 2 min 0 W/m 16,1 km/h (3 Bft) 93,62 %
08.01.2023 23:22 8,2 C 7,2 C 3,3 C 91 % 994,8 hPa 0,0 l/m 0 min 2 min 0 W/m 6,4 km/h (2 Bft) 95,74 %
08.01.2023 23:24 8,2 C 7,2 C 3,3 C 91 % 994,8 hPa 0,0 l/m 0 min 2 min 0 W/m 16,1 km/h (3 Bft) 95,74 %
08.01.2023 23:26 8,2 C 7,2 C 3,3 C 91 % 994,8 hPa 0,0 l/m 0 min 2 min 0 W/m 12,9 km/h (3 Bft) 93,62 %
08.01.2023 23:28 8,2 C 7,2 C 3,3 C 91 % 994,8 hPa 0,2 l/m 0 min 2 min 0 W/m 16,1 km/h (3 Bft) 95,74 %
08.01.2023 23:30 8,2 C 7,2 C 3,3 C 91 % 994,8 hPa 0,0 l/m 0 min 2 min 0 W/m 19,3 km/h (3 Bft) 95,65 %
08.01.2023 23:32 8,1 C 7,2 C 3,3 C 91 % 994,7 hPa 0,0 l/m 0 min 2 min 0 W/m 12,9 km/h (3 Bft) 91,49 %
08.01.2023 23:34 8,1 C 7,2 C 3,3 C 92 % 994,6 hPa 0,0 l/m 0 min 2 min 0 W/m 16,1 km/h (3 Bft) 95,74 %
08.01.2023 23:36 8,1 C 7,2 C 3,3 C 92 % 994,7 hPa 0,2 l/m 0 min 2 min 0 W/m 16,1 km/h (3 Bft) 97,87 %
08.01.2023 23:38 8,1 C 7,2 C 3,3 C 92 % 994,6 hPa 0,0 l/m 0 min 2 min 0 W/m 16,1 km/h (3 Bft) 93,62 %
08.01.2023 23:40 8,1 C 7,2 C 3,3 C 92 % 994,6 hPa 0,0 l/m 0 min 2 min 0 W/m 12,9 km/h (3 Bft) 97,87 %
08.01.2023 23:42 8,1 C 7,2 C 3,3 C 92 % 994,6 hPa 0,0 l/m 0 min 2 min 0 W/m 19,3 km/h (3 Bft) 100,00 %
08.01.2023 23:44 8,1 C 7,2 C 3,3 C 92 % 994,6 hPa 0,0 l/m 0 min 2 min 0 W/m 12,9 km/h (3 Bft) 100,00 %
08.01.2023 23:46 8,1 C 7,2 C 3,3 C 92 % 994,6 hPa 0,0 l/m 0 min 2 min 0 W/m 16,1 km/h (3 Bft) 97,87 %
08.01.2023 23:48 8,1 C 7,2 C 3,3 C 92 % 994,5 hPa 0,2 l/m 0 min 2 min 0 W/m 12,9 km/h (3 Bft) 97,87 %
08.01.2023 23:50 8,1 C 7,2 C 3,3 C 93 % 994,6 hPa 0,0 l/m 0 min 2 min 0 W/m 16,1 km/h (3 Bft) 97,87 %
08.01.2023 23:52 8,1 C 7,2 C 3,3 C 93 % 994,5 hPa 0,2 l/m 0 min 2 min 0 W/m 25,7 km/h (4 Bft) 97,87 %
08.01.2023 23:54 8,1 C 7,2 C 3,3 C 93 % 994,6 hPa 0,0 l/m 0 min 2 min 0 W/m 16,1 km/h (3 Bft) 97,87 %
08.01.2023 23:56 8,1 C 7,2 C 3,3 C 93 % 994,6 hPa 0,0 l/m 0 min 2 min 0 W/m 12,9 km/h (3 Bft) 97,87 %
08.01.2023 23:58 8,1 C 7,2 C 3,3 C 93 % 994,6 hPa 0,0 l/m 0 min 0 min 0 W/m 16,1 km/h (3 Bft) 95,65 %
_ Min-Zeit 09:38 09:28 09:04 15:16 23:48 - - - - 01:54 00:02
Minimum _ 7,2 C 6,1 C 2,8 C 79 % 994,5 hPa - - - - 3,2 km/h (1 Bft) 43,24 %
_ Max-Zeit 14:40 13:48 11:54 23:50 00:02 12:40 10:14 00:02 13:16 15:10 00:00
Maximum _ 10,5 C 14,4 C 6,7 C 93 % 1006,1 hPa 0,6 l/m 2 min 2 min 325 W/m 51,5 km/h
S (7 Bft)
100,00 %
Durchschnitt _ 9,0 C 8,5 C 4,6 C 87 % 1001,3 hPa #5,0 l/m #2:24 h #2:16 h 98 W/m 14,7 km/h (3 Bft) 97,20 %
© 2023 W. Hausmann